GFSNGP_250_spd_003.txt.gz
Wind_Speed
22 25 28 30 33 34 35 37 40 45 46 51 50 47 48 52 54 55 54 58 63 66 70 75 80 87 94 99 106 114 122 129 130 132 132 130 124 117 113 110 103 94 88 83
28 31 34 36 38 40 42 44 48 48 50 51 55 53 53 56 58 59 59 61 66 71 75 82 88 94 100 106 113 120 127 132 134 132 135 127 121 116 107 99 93 86 80 74
35 38 40 42 46 48 50 50 50 51 52 55 56 56 56 57 59 62 66 67 73 78 84 90 95 101 107 114 119 122 128 134 133 131 126 122 114 107 99 92 85 80 75 72
40 41 41 42 47 51 52 53 56 56 56 58 60 59 60 60 61 64 66 71 79 86 90 95 102 106 111 117 123 127 132 131 133 125 117 111 104 97 91 84 80 77 73 69
39 44 48 49 54 60 58 59 61 61 61 62 64 65 61 59 62 67 72 79 85 91 99 105 107 110 115 122 128 131 131 131 130 120 109 99 92 88 82 78 76 74 68 64
47 52 56 56 61 62 59 60 62 64 64 64 64 63 63 65 69 76 82 88 93 101 106 106 109 116 121 127 130 131 129 128 118 107 98 90 85 78 76 74 71 69 64 60
54 57 61 63 60 59 58 58 61 61 61 60 60 62 66 70 76 83 87 92 99 106 107 111 116 120 125 128 130 128 128 117 106 98 90 84 79 76 73 71 67 64 61 58
61 63 63 62 59 60 59 58 59 59 59 60 63 69 75 79 85 91 94 100 105 108 111 117 122 126 126 128 128 126 114 105 98 92 86 79 75 72 68 66 63 61 59 56
67 68 67 60 61 60 58 59 58 59 62 66 70 76 81 86 92 96 101 106 109 113 117 121 125 127 127 126 126 116 106 97 92 87 80 75 72 68 65 63 60 57 56 54
69 69 71 63 58 57 60 61 61 64 70 74 79 84 89 95 98 104 107 112 116 119 121 123 126 128 127 126 120 108 99 92 87 81 76 71 68 65 63 60 56 53 52 51
71 73 71 68 62 61 63 64 67 72 77 82 86 91 96 101 105 108 112 118 121 123 125 126 127 128 126 119 110 100 93 88 82 76 72 68 65 62 60 57 53 51 50 50
75 76 75 69 68 70 71 72 75 79 83 87 93 98 103 107 109 113 118 120 122 124 127 126 126 126 118 110 101 95 89 82 77 72 68 65 63 60 56 54 52 50 49 44
79 77 73 71 73 75 77 80 83 86 89 94 99 103 108 109 114 117 120 123 124 125 124 123 123 117 109 100 94 90 83 76 73 68 65 63 60 56 55 54 52 49 46 44
81 76 72 75 79 81 83 87 90 92 95 100 104 108 111 115 117 122 127 125 126 124 121 121 115 110 100 92 88 82 79 73 69 65 63 60 57 55 54 53 50 48 47 45
74 76 77 79 82 84 87 91 93 97 101 105 108 113 116 120 124 128 126 125 122 122 120 113 108 100 92 87 82 77 74 69 65 63 60 57 56 53 51 49 48 47 44 44
79 81 82 85 88 89 93 96 100 102 105 109 113 117 123 127 126 124 123 121 121 117 110 105 98 91 86 82 77 73 69 66 63 61 57 56 54 51 49 48 47 46 41 39
82 85 87 89 92 95 99 102 105 107 111 116 118 125 128 125 123 119 119 121 117 110 104 96 90 87 81 78 73 69 66 64 61 58 56 54 52 50 48 46 45 43 41 37
88 89 92 95 97 101 105 108 110 113 117 120 124 129 124 121 117 118 118 112 107 101 95 89 85 84 78 73 69 66 63 60 59 57 55 53 51 49 47 45 42 39 39 38
94 96 98 101 105 108 111 114 116 119 121 126 125 119 116 116 117 113 107 104 96 90 89 87 82 79 75 70 66 64 60 58 58 56 54 52 51 49 46 42 39 37 37 38
100 104 106 109 111 114 118 120 120 123 125 118 113 113 113 113 109 105 100 93 89 86 84 82 79 75 71 66 63 61 59 57 56 54 52 51 49 47 43 40 38 37 36 38
107 110 113 116 119 122 124 123 123 114 112 111 111 112 109 105 102 96 91 89 87 83 79 76 73 70 66 64 61 58 56 56 55 53 51 49 47 44 42 41 40 39 39 38
117 119 123 124 124 125 123 114 110 109 109 109 109 104 100 98 94 89 87 83 79 76 74 72 69 66 63 62 60 56 54 54 52 50 49 48 45 43 42 41 41 40 40 38
126 125 124 123 116 113 111 110 108 107 107 103 101 99 94 89 87 84 82 81 77 73 69 66 65 64 61 59 57 55 54 53 51 49 47 46 44 42 42 42 42 41 40 38
123 117 111 107 105 106 104 105 105 107 100 97 94 91 87 84 85 80 78 74 70 67 65 64 64 62 59 56 54 52 51 50 49 47 45 45 43 42 42 42 42 41 41 40
109 107 107 106 105 104 103 102 103 101 96 91 87 84 81 78 74 73 70 67 65 64 63 61 60 58 57 54 51 50 49 49 47 46 44 43 43 42 42 42 41 41 41 40
107 106 105 105 104 102 101 98 98 92 85 82 82 81 77 74 72 69 65 64 63 61 59 58 57 55 53 52 50 48 48 47 47 45 43 42 42 42 41 41 41 40 41 40
103 103 102 101 100 96 94 93 88 83 81 79 78 75 71 70 69 65 63 62 61 57 56 56 54 52 50 49 48 48 48 48 45 43 42 41 41 41 40 40 40 39 39 39

GFSNGP_250_spd_006.txt.gz
Wind_Speed
18 20 22 26 29 30 34 36 39 44 47 49 51 53 54 55 56 57 58 61 62 61 61 65 71 77 83 89 96 104 109 114 117 122 126 126 125 123 123 120 115 106 99 91
22 23 27 31 35 35 38 43 46 50 56 55 55 55 56 58 59 59 60 60 59 60 64 70 76 84 90 96 105 109 116 120 123 125 124 125 124 123 118 110 103 95 88 83
26 29 33 35 36 39 43 49 52 57 59 58 55 57 60 60 61 60 59 59 62 67 72 78 85 91 98 103 109 116 121 124 128 128 126 123 121 115 106 99 92 86 80 77
31 34 34 35 42 45 49 54 56 59 59 57 57 58 58 58 59 60 61 64 69 75 80 87 93 99 104 110 115 118 123 127 128 126 126 122 114 104 96 90 83 80 75 72
35 34 38 42 47 51 54 60 58 61 61 60 59 58 57 58 60 63 66 71 77 82 88 93 99 104 109 114 118 125 127 126 128 126 123 114 104 96 88 81 77 74 70 67
37 42 44 48 53 56 61 64 63 65 63 62 62 60 60 60 63 68 73 78 84 89 95 99 104 108 114 118 124 128 126 125 124 123 114 106 96 88 81 77 74 70 66 63
48 50 53 54 58 62 66 63 62 66 64 61 61 63 64 67 71 76 80 85 91 95 101 105 109 114 121 126 126 129 125 123 122 115 106 97 89 82 78 74 70 66 63 59
53 57 58 62 65 68 67 66 66 69 66 64 65 66 68 72 77 81 86 91 95 100 105 110 115 120 127 128 129 129 125 123 119 109 99 91 85 79 74 69 66 63 58 55
57 60 65 68 71 72 70 70 72 74 69 67 70 71 74 78 82 87 91 96 99 104 110 117 121 129 132 131 128 126 126 119 111 101 93 86 81 76 71 66 64 59 56 55
63 67 70 71 73 73 71 73 75 75 72 71 74 75 79 83 87 92 96 100 104 110 116 122 126 133 133 129 125 126 119 111 102 94 88 81 76 71 67 64 60 58 56 54
68 73 71 71 74 74 75 77 78 73 73 75 79 82 85 88 92 97 100 105 111 116 120 125 132 133 128 126 125 119 113 101 95 88 82 77 71 67 64 61 59 57 54 51
72 75 74 76 77 77 79 81 79 77 78 81 83 87 88 93 97 102 106 112 116 122 126 130 134 128 124 122 116 109 101 94 88 82 76 72 67 64 60 59 57 54 52 49
74 77 80 81 81 82 83 79 78 80 84 85 88 91 95 99 104 109 113 118 123 128 132 134 127 123 120 114 105 98 92 87 82 77 72 68 64 61 59 56 54 51 50 48
80 84 84 84 85 86 83 82 85 87 88 91 93 97 101 106 111 116 121 125 130 135 134 125 123 119 112 102 94 90 86 82 76 72 68 65 62 59 57 55 52 49 48 47
86 85 83 84 83 84 84 86 89 90 92 96 100 103 108 111 116 122 127 131 133 129 122 121 117 110 100 92 88 85 81 77 72 68 65 62 58 57 55 52 51 49 47 45
81 80 80 84 85 86 88 91 93 95 98 102 107 111 115 118 124 129 133 132 124 121 119 112 107 98 90 87 84 81 77 72 68 65 62 59 56 55 52 50 48 45 43 41
82 84 84 87 88 90 94 97 99 102 106 109 113 117 121 127 130 133 124 120 119 115 109 104 95 89 85 82 80 77 72 68 66 63 59 56 54 53 50 48 44 42 40 38
87 90 91 93 95 98 101 104 107 110 112 115 120 126 131 134 127 116 115 114 108 104 100 93 87 84 81 79 75 71 67 65 62 59 57 54 53 51 49 45 42 40 39 37
92 95 98 101 103 106 108 111 113 116 119 123 130 134 129 117 113 111 107 102 99 92 89 87 83 80 77 73 69 66 65 62 59 56 54 52 51 50 47 44 42 41 39 37
100 103 105 109 111 115 118 119 122 125 130 132 125 115 111 110 104 100 96 93 88 86 85 82 77 75 71 68 66 64 63 59 56 54 52 50 49 48 45 43 41 40 38 38
107 111 114 116 120 122 125 127 129 128 121 109 106 106 100 98 96 93 88 83 86 83 80 76 72 69 67 65 63 61 58 54 53 51 50 48 47 47 44 41 40 40 39 39
118 119 122 125 127 124 118 116 113 107 105 105 101 94 92 92 91 86 84 81 81 78 75 72 68 66 65 63 60 56 53 52 50 49 48 47 47 45 43 41 40 40 40 39
122 121 119 116 115 112 109 108 105 104 101 96 93 91 89 87 85 76 78 82 78 75 72 68 66 65 62 59 55 52 50 48 47 46 45 45 46 45 42 40 40 40 40 40
113 110 107 105 104 103 103 104 99 98 93 92 89 87 83 80 79 78 76 75 73 70 68 65 64 61 58 55 51 49 47 47 47 47 46 46 45 43 41 40 40 40 40 40
101 102 100 101 101 100 94 93 92 92 89 86 86 83 79 76 73 74 73 72 70 65 64 62 59 56 55 53 50 47 46 45 45 45 45 46 44 42 40 40 40 40 40 40
100 100 100 99 96 92 91 91 87 86 86 85 84 81 77 75 73 71 70 69 66 62 60 57 55 53 52 50 48 47 46 45 45 45 45 44 42 41 40 41 40 39 39 39
97 96 94 92 90 89 87 85 83 82 80 79 77 77 74 72 71 69 67 65 63 60 58 55 53 51 50 49 49 47 46 46 46 45 44 43 41 41 41 41 40 39 39 38

GFSNGP_250_spd_009.txt.gz
Wind_Speed
17 18 18 20 23 27 28 27 32 37 43 47 51 53 55 56 57 56 56 57 57 58 58 59 63 69 75 81 88 94 100 104 108 114 120 126 132 129 126 121 117 112 106 98
22 23 24 26 28 30 29 31 37 43 46 51 54 56 58 59 57 57 56 57 58 61 63 65 70 76 82 87 94 101 106 110 116 122 127 134 132 127 125 118 112 103 96 90
26 25 26 31 34 31 33 39 43 48 51 57 57 56 60 62 62 60 59 60 60 63 66 71 77 82 87 93 101 106 111 116 122 126 133 134 128 126 121 114 103 94 90 83
29 29 30 36 38 34 39 46 48 51 57 61 61 59 62 64 63 61 61 63 65 67 72 77 81 85 93 98 105 110 116 120 127 131 134 129 125 121 115 105 95 88 82 77
33 35 33 38 39 43 47 51 54 58 63 65 67 65 65 67 66 64 67 70 71 74 79 82 86 91 98 105 110 116 121 127 133 132 127 126 124 117 105 96 89 83 77 72
34 34 36 42 46 49 52 56 59 65 66 67 70 70 72 74 71 71 71 72 76 80 84 87 92 98 104 111 117 122 127 133 132 128 127 125 118 108 98 90 83 77 72 68
38 38 37 46 51 56 59 61 65 70 69 69 73 76 76 78 77 75 74 76 82 85 89 93 99 105 111 117 123 127 134 133 127 126 127 120 110 100 93 85 78 73 68 64
42 45 44 53 55 60 64 65 69 69 70 73 77 79 80 81 80 78 79 84 88 91 95 101 106 111 117 124 129 133 135 129 127 127 122 113 103 96 87 79 73 69 65 61
51 54 56 59 61 65 66 69 72 73 73 78 81 82 83 84 82 83 86 89 92 96 101 107 112 117 123 130 133 136 131 127 127 122 116 105 97 88 81 75 70 66 62 59
58 61 65 66 67 70 70 74 75 76 78 84 86 84 84 83 84 86 90 94 97 102 108 112 117 124 132 132 134 128 127 127 123 118 108 99 90 81 75 69 66 62 59 57
62 67 67 70 73 74 76 78 77 79 83 85 83 81 82 84 88 91 96 99 104 109 114 117 123 132 134 131 127 126 126 122 118 109 100 91 82 75 70 66 63 60 58 56
67 71 72 73 73 76 77 78 81 84 85 80 81 84 86 90 93 97 101 105 110 115 119 124 131 134 128 125 123 122 119 116 109 99 91 83 76 70 66 63 60 57 57 54
73 75 75 76 76 78 80 83 84 82 80 83 87 90 92 96 100 104 107 112 115 121 126 129 130 124 122 121 118 116 113 107 98 90 84 76 70 66 64 59 58 56 54 52
79 78 77 80 81 83 83 82 83 84 86 89 92 95 99 102 105 109 114 118 124 128 129 124 120 120 119 115 113 109 103 96 89 83 76 71 67 65 61 57 54 52 52 50
79 81 83 83 83 83 83 85 87 90 92 96 99 103 106 108 113 117 121 125 128 122 116 115 118 114 112 109 106 101 94 88 82 77 72 67 65 62 58 55 52 50 48 46
80 80 82 84 86 87 89 91 94 96 98 100 104 108 111 115 121 123 125 127 116 115 114 115 112 109 105 102 98 93 86 81 77 72 69 66 62 59 55 51 50 48 46 43
80 83 84 87 90 92 93 96 98 102 106 109 113 117 120 122 125 126 119 117 114 113 113 109 104 101 98 95 90 85 80 76 71 70 67 64 59 55 51 48 47 46 44 42
86 89 90 93 96 98 100 103 107 110 113 117 121 123 125 126 120 116 116 114 112 110 106 101 98 94 92 89 84 80 76 71 69 67 64 60 55 50 48 45 45 45 42 40
92 95 97 100 104 107 110 114 118 119 120 122 124 123 118 114 115 115 112 109 102 98 97 95 92 90 87 83 78 75 71 68 67 64 61 56 51 48 45 44 43 44 41 39
101 104 106 110 113 115 118 119 119 123 124 121 114 114 114 113 109 106 101 98 97 92 90 87 85 84 80 76 73 70 67 65 63 60 56 53 48 46 44 43 43 43 41 39
110 111 114 116 117 120 121 121 121 117 112 114 113 112 106 104 100 93 91 91 92 89 85 82 80 78 75 71 68 66 64 62 59 57 54 50 47 45 45 43 43 42 40 39
114 116 118 120 121 119 113 112 113 113 112 110 103 97 94 91 87 88 91 89 85 83 81 78 76 74 71 66 64 63 60 58 56 54 53 50 47 45 45 44 43 41 39 39
111 107 105 107 108 108 108 108 106 102 99 95 91 88 85 83 83 86 84 85 82 80 78 75 73 71 68 64 62 61 58 55 53 51 51 49 47 46 45 44 42 40 39 38
103 104 103 104 106 105 100 100 95 92 88 86 86 85 82 80 83 84 80 78 77 75 74 71 70 67 66 63 61 59 57 54 52 50 50 49 48 47 45 43 41 40 39 39
104 101 100 98 96 93 92 92 90 88 87 88 87 85 82 80 78 77 76 73 71 72 71 68 67 65 64 62 59 58 56 55 52 50 49 49 49 47 45 43 40 40 39 38
102 98 95 94 93 92 91 90 87 87 85 84 84 84 81 78 73 71 70 69 69 69 67 65 64 63 62 60 58 56 56 55 51 50 49 49 48 46 44 42 41 41 38 38
91 90 89 88 88 86 85 84 82 83 84 80 77 77 76 72 69 67 66 66 66 65 63 62 61 60 60 58 57 55 55 54 51 49 48 47 46 45 43 42 41 40 38 37

GFSNGP_250_spd_012.txt.gz
Wind_Speed
13 16 17 19 22 24 26 28 30 29 32 35 41 46 51 55 56 56 55 57 61 61 62 63 63 63 65 69 75 79 85 91 97 105 110 115 122 130 130 128 124 122 116 110
17 18 20 23 28 28 30 34 34 33 38 42 46 48 54 60 61 61 61 63 65 68 68 66 64 67 70 76 82 87 93 97 105 110 116 122 130 132 127 123 122 116 109 99
22 23 23 29 31 32 34 38 36 38 44 48 50 56 60 65 65 67 69 72 73 74 73 67 67 71 78 84 89 94 99 104 111 115 121 128 133 129 122 121 117 112 101 94
27 28 26 34 37 36 36 37 38 44 47 49 57 61 64 67 69 70 71 75 78 78 76 73 76 80 85 90 94 100 105 111 115 120 126 131 128 124 123 118 112 103 95 89
29 33 32 35 40 40 37 38 46 49 54 58 62 64 69 71 73 74 75 80 82 79 78 79 82 86 91 96 101 106 112 116 124 126 128 127 124 123 119 113 106 98 91 85
36 36 34 37 43 43 42 41 52 56 61 64 65 67 71 75 76 76 79 84 82 79 81 83 87 92 97 101 107 112 117 124 127 127 122 122 123 120 114 108 100 93 86 79
39 38 35 41 42 45 49 51 56 61 67 69 71 72 75 78 78 81 84 84 80 82 86 89 93 98 102 107 112 119 123 127 124 120 119 122 120 116 110 102 95 87 79 73
43 44 40 44 45 51 57 60 62 67 70 72 75 77 77 78 82 84 86 83 84 88 92 95 99 103 107 113 119 122 125 124 120 119 120 120 116 112 105 98 90 81 74 71
48 49 48 48 54 59 63 66 69 71 74 76 78 79 79 83 85 86 85 87 90 93 97 101 105 109 113 118 122 124 122 121 118 117 117 116 113 107 99 93 83 76 71 68
50 54 57 59 61 66 67 70 74 76 78 80 80 81 85 86 86 87 88 91 94 98 102 107 112 116 119 121 124 120 119 116 115 115 114 112 108 99 92 85 77 72 69 65
56 59 60 66 70 71 72 76 80 81 81 82 83 87 87 88 90 89 91 96 99 104 108 114 118 121 122 121 118 116 115 115 114 112 111 109 102 94 86 79 73 69 66 62
61 65 66 71 73 77 79 82 84 83 83 85 88 89 89 90 91 94 97 100 105 111 115 119 122 123 119 117 115 113 114 114 112 110 107 102 96 89 80 74 71 66 61 58
69 72 73 75 77 81 84 84 83 85 88 88 87 88 91 94 96 99 103 108 113 117 118 121 122 115 117 114 112 112 113 111 109 105 101 95 89 83 75 70 66 63 59 56
79 79 79 82 81 82 83 85 88 88 87 89 91 92 97 98 102 107 111 115 118 121 122 119 116 116 115 112 111 112 110 107 104 100 93 88 83 75 72 67 63 59 57 53
82 82 80 79 80 83 85 85 87 89 92 94 97 98 103 108 111 115 119 120 122 122 118 114 115 114 112 111 110 108 105 101 98 92 86 82 76 71 68 64 60 57 53 50
78 80 81 82 82 83 86 88 91 94 97 100 105 108 111 115 118 120 121 124 121 115 112 113 113 111 109 108 106 103 100 97 92 85 81 76 72 68 65 61 57 53 49 47
79 81 83 85 87 90 94 96 98 101 105 108 111 115 118 120 121 124 121 115 111 110 113 114 112 108 105 102 100 99 94 90 85 79 75 71 69 65 61 57 54 51 48 46
86 89 91 93 96 99 102 104 106 109 112 115 118 119 121 122 120 114 112 113 112 112 115 109 104 103 100 98 97 94 89 82 79 74 69 67 65 61 58 55 52 50 48 45
95 98 100 102 104 106 108 111 113 114 116 119 121 120 115 109 111 113 112 114 114 109 104 100 99 97 95 95 92 88 82 76 74 70 65 64 61 57 55 53 52 50 48 46
101 104 107 109 111 112 115 117 118 118 119 114 111 113 113 111 110 108 108 109 103 95 94 94 93 91 90 89 85 81 76 72 70 66 63 60 57 55 53 52 51 49 48 47
107 108 112 116 115 115 115 113 111 109 109 110 112 115 116 116 112 106 99 93 94 92 91 91 90 87 84 82 79 75 72 68 65 64 60 57 55 53 52 51 50 50 48 47
114 113 109 107 105 105 105 106 109 111 113 115 115 109 102 98 95 92 92 90 89 88 88 87 85 83 79 76 74 71 69 65 62 61 58 55 53 52 51 50 49 49 48 46
104 104 104 105 107 107 108 110 110 108 102 97 95 93 91 90 90 88 86 88 86 85 84 81 80 77 74 71 69 67 65 63 61 59 56 53 50 50 50 50 49 48 47 46
107 109 109 110 111 109 105 99 94 90 89 91 91 90 88 87 86 88 85 82 80 78 76 75 73 72 70 68 66 65 64 61 59 57 55 52 49 48 48 49 48 47 45 43
112 111 107 102 97 95 94 90 89 89 88 88 89 88 87 86 82 80 80 78 75 73 71 70 69 68 66 65 63 63 61 60 58 56 53 51 49 49 48 46 47 45 43 41
98 98 98 97 94 90 89 88 86 87 87 86 85 85 83 80 78 75 73 71 69 69 68 67 66 65 64 62 60 58 58 57 56 54 53 51 49 47 47 47 45 43 42 41
93 90 89 88 87 84 83 82 81 81 80 77 75 76 74 73 73 71 70 67 65 64 63 63 63 63 61 60 58 56 55 55 53 53 51 49 47 47 46 43 43 42 41 39

GFSNGP_250_spd_015.txt.gz
Wind_Speed
11 12 11 13 15 19 21 25 27 28 32 30 33 36 41 45 45 51 56 60 62 66 70 70 71 73 76 74 71 74 78 81 87 92 97 103 108 113 118 118 119 119 116 116
15 14 16 19 22 25 27 30 30 31 37 35 35 39 46 48 53 58 61 65 66 69 73 73 75 77 78 77 76 80 84 88 94 99 105 110 114 118 119 119 117 116 115 110
18 19 19 24 30 30 32 33 34 36 39 36 39 45 51 55 59 64 65 69 71 73 76 77 79 81 81 80 82 85 90 96 102 106 112 115 118 119 116 116 114 114 109 103
23 25 23 32 36 36 35 38 38 40 37 38 44 50 56 60 65 69 71 74 75 78 78 80 82 83 83 84 86 90 96 102 108 113 116 118 117 118 116 113 113 109 104 97
27 29 29 36 39 41 41 40 42 39 41 45 51 56 61 64 68 71 75 77 79 81 82 84 86 86 86 88 92 97 102 108 114 117 118 117 117 113 111 112 108 107 101 94
33 32 33 39 43 44 43 40 45 47 48 53 58 62 65 68 71 76 79 82 84 84 87 88 89 87 91 93 97 102 108 114 117 118 116 115 112 110 111 109 106 102 96 90
37 37 37 42 44 44 47 47 48 51 56 60 64 68 71 74 78 81 84 85 85 89 91 90 89 92 94 98 103 108 113 116 118 116 112 112 111 110 109 106 104 98 92 85
42 43 43 46 47 48 48 50 53 56 61 64 68 72 74 78 84 86 85 85 90 91 90 91 92 95 99 104 110 115 116 117 116 109 109 110 110 109 107 105 101 95 88 81
48 50 50 48 50 51 53 58 61 63 67 71 74 77 80 84 87 86 87 90 88 89 92 93 96 100 105 111 114 117 118 113 105 106 109 110 109 108 104 102 97 91 83 76
50 54 54 54 57 59 61 64 68 71 73 76 80 83 85 87 87 87 88 88 90 93 95 99 104 108 112 115 116 114 107 105 105 108 110 109 107 105 102 98 91 84 77 72
50 55 58 62 64 65 68 71 74 77 81 85 86 85 85 86 88 87 89 92 97 99 103 107 112 115 117 115 109 105 107 109 109 110 109 107 105 101 99 93 85 79 72 68
57 61 61 66 69 71 75 79 83 86 87 86 84 84 87 88 90 92 96 99 101 105 110 114 115 116 112 105 105 109 109 108 109 107 106 105 101 99 93 86 79 73 68 64
63 65 68 70 73 77 81 84 85 84 82 82 83 85 87 91 96 100 105 106 109 112 115 114 113 107 105 107 107 108 108 109 106 105 105 101 99 93 86 78 74 68 65 61
71 70 73 77 80 84 85 82 81 82 82 83 86 91 95 99 103 105 110 112 113 116 113 112 112 114 115 116 115 113 110 106 104 103 100 99 94 85 78 74 69 63 61 58
76 78 79 82 82 82 82 83 82 85 88 92 95 99 104 107 109 113 116 117 118 118 118 117 114 116 117 117 115 109 104 103 101 99 97 93 85 77 72 68 64 61 57 55
82 84 84 84 82 82 82 86 89 94 96 99 102 106 109 110 113 116 117 115 112 113 113 116 117 115 113 106 102 101 101 99 97 95 90 84 77 72 68 64 60 57 54 52
86 86 85 85 85 88 91 95 98 100 104 107 109 114 115 116 116 113 111 113 113 115 116 116 116 113 106 103 99 98 97 94 93 87 82 77 72 69 64 60 57 55 52 50
87 86 86 88 92 97 100 101 104 108 109 113 115 115 113 110 111 111 113 116 118 121 118 112 104 102 100 98 96 96 93 87 84 79 75 72 68 66 61 58 55 53 50 47
87 90 93 97 101 103 105 107 110 113 115 118 116 117 114 114 116 118 120 122 118 110 104 105 103 101 98 95 91 90 84 81 78 74 70 68 65 62 58 56 53 51 48 45
95 97 100 103 105 107 111 112 116 114 115 116 116 116 118 120 121 120 114 107 106 107 103 101 98 95 92 88 85 81 77 74 72 69 67 64 61 59 55 53 52 48 46 44
99 103 105 106 108 109 114 114 113 113 113 114 118 119 120 117 111 107 107 105 104 100 97 94 91 86 83 80 78 75 72 69 68 66 64 60 57 55 54 51 49 47 46 44
105 110 109 110 111 113 114 112 111 115 118 119 116 109 104 104 103 101 99 97 95 93 90 87 84 81 78 76 74 70 68 66 65 63 60 56 54 52 51 50 48 46 45 43
112 112 112 115 114 112 112 113 116 114 108 103 103 100 96 95 95 94 92 92 88 85 82 80 78 76 74 72 70 68 66 63 61 58 56 54 51 50 49 48 47 45 44 42
110 112 111 111 112 113 112 106 102 101 97 95 95 94 91 89 88 88 85 82 80 77 74 73 72 70 70 68 67 65 63 61 58 55 53 52 50 49 48 47 45 44 42 41
110 111 114 111 108 102 102 98 94 91 89 87 88 88 87 86 81 77 76 74 73 72 72 70 68 67 65 64 62 60 59 57 55 53 52 50 49 48 46 45 43 42 41 40
109 106 103 100 97 94 90 88 86 85 83 82 82 81 79 78 77 76 74 71 68 67 66 65 64 63 62 60 58 57 56 55 53 51 50 49 48 46 45 44 43 41 39 38
98 96 93 90 88 86 85 83 82 81 79 75 72 73 72 72 72 71 70 68 66 64 63 62 60 59 58 57 56 55 54 52 51 50 48 46 45 44 43 42 41 39 39 37

GFSNGP_250_spd_018.txt.gz
Wind_Speed
18 16 15 16 16 18 20 21 25 28 31 28 30 36 39 39 39 42 47 52 55 58 62 65 69 73 77 78 80 81 84 83 82 84 88 92 98 104 109 113 115 112 108 109
21 20 18 17 20 22 24 26 30 31 37 36 36 38 40 42 42 46 53 56 60 64 67 70 75 80 82 82 82 86 85 84 86 88 93 98 104 110 113 115 111 108 110 111
25 21 20 23 26 26 29 31 33 35 38 40 42 43 44 44 45 53 58 61 67 71 74 76 80 84 85 84 87 86 86 88 90 95 101 106 111 115 116 109 107 109 109 109
27 25 24 30 31 33 33 36 36 37 41 43 44 45 46 47 53 59 63 67 73 75 78 81 84 87 85 88 88 88 90 93 97 102 107 112 116 115 108 108 109 109 110 105
29 30 30 33 36 39 38 39 39 41 44 45 47 49 50 54 59 65 69 72 77 80 82 85 87 86 88 88 89 92 96 99 103 109 112 115 111 107 107 108 109 109 105 100
33 32 34 38 40 41 42 42 45 47 49 50 51 54 57 60 65 69 72 76 80 85 86 86 85 88 90 91 95 99 102 105 109 114 114 110 108 107 108 110 110 107 99 96
35 36 39 41 42 43 45 46 49 52 53 56 60 59 63 67 71 75 78 82 86 85 83 85 88 89 93 97 101 104 108 111 112 113 109 108 109 111 110 108 105 99 98 94
39 41 41 43 45 47 50 53 55 56 58 59 62 66 69 73 77 82 85 85 82 81 83 86 89 93 97 102 105 108 112 112 109 105 107 109 110 107 105 103 102 100 96 92
44 46 46 45 47 48 49 52 55 58 60 63 67 70 73 78 83 84 81 81 84 85 86 89 95 100 104 107 110 112 108 104 104 107 107 107 106 107 106 105 103 97 93 88
46 47 46 45 47 51 55 59 61 62 66 69 72 75 79 83 80 80 82 84 86 89 93 99 100 104 107 108 107 105 106 107 104 103 105 108 106 103 104 104 100 94 88 83
46 51 51 56 57 59 63 65 66 69 72 75 78 81 82 81 81 82 84 89 93 97 100 103 107 109 110 104 102 104 106 109 108 109 109 107 103 104 103 99 94 88 83 78
52 55 57 62 66 68 70 71 74 76 77 80 84 85 84 83 84 87 92 97 100 103 107 110 113 111 105 106 105 110 113 113 113 111 106 103 104 103 97 92 88 82 79 73
58 63 67 69 70 74 74 76 77 79 83 87 87 86 86 86 91 97 100 101 104 109 113 114 113 109 110 114 116 115 118 120 113 107 106 105 98 93 91 87 82 76 73 69
67 69 71 73 74 76 78 79 83 87 90 88 88 88 89 93 99 100 105 108 111 111 106 111 112 113 116 116 118 120 117 111 106 106 102 97 91 89 85 81 75 70 67 65
74 74 76 78 80 81 83 87 90 87 88 89 89 92 96 100 102 104 107 109 111 111 111 113 114 116 115 117 116 113 108 108 105 100 96 92 88 84 80 75 69 66 63 61
78 78 80 82 85 89 90 87 88 89 90 91 95 99 102 105 110 110 112 113 112 109 112 118 119 120 121 114 112 109 106 100 97 94 91 87 81 77 73 68 65 63 60 58
81 84 87 90 89 87 89 90 91 92 97 100 103 105 108 112 115 114 115 114 114 119 123 124 124 120 115 110 109 104 98 96 93 88 85 80 75 72 68 65 61 60 58 56
88 87 85 86 88 90 91 93 98 101 105 106 109 112 115 117 118 117 114 120 123 123 122 115 113 112 108 103 100 97 92 88 85 82 79 74 71 68 65 63 60 57 54 52
83 85 88 90 92 94 98 101 104 107 110 113 117 117 118 118 115 116 119 121 121 117 116 113 110 105 100 95 90 86 83 80 77 75 72 69 67 64 62 60 58 55 52 48
87 89 91 94 97 101 104 106 109 111 113 114 116 114 116 116 118 120 120 117 113 109 105 101 97 93 89 86 82 80 77 73 71 70 67 65 63 61 60 57 55 52 50 47
90 93 96 100 103 105 106 110 111 112 115 111 112 114 118 117 112 109 107 104 102 99 96 92 90 86 83 80 77 75 72 69 66 65 64 62 60 58 56 53 51 48 47 47
96 99 102 104 107 109 107 109 111 111 110 110 115 115 115 110 106 102 100 97 94 92 86 83 81 79 77 74 73 70 67 65 65 63 61 59 56 54 52 50 48 46 45 45
101 102 104 107 107 107 109 110 109 109 112 114 111 106 103 100 96 94 91 90 86 82 80 77 75 74 71 69 68 68 66 63 60 58 56 54 52 51 49 47 46 45 44 43
102 104 106 105 107 107 106 109 110 109 108 103 99 97 94 92 89 86 81 78 76 74 72 71 70 68 67 66 64 63 62 58 56 56 54 53 51 49 48 47 45 44 43 42
103 104 105 106 106 108 109 109 105 102 99 96 95 92 89 84 79 76 76 75 73 71 69 67 66 65 63 62 59 58 59 58 55 54 54 52 50 48 47 46 45 44 43 42
106 106 107 107 107 106 103 99 96 94 93 90 88 85 81 79 77 75 74 72 70 68 65 63 61 59 58 58 58 57 57 56 53 51 50 49 48 46 44 43 42 42 41 40
108 108 106 104 100 97 93 91 91 89 85 82 79 76 75 74 73 71 70 68 67 65 62 60 58 58 57 55 55 54 52 51 50 48 47 46 44 44 43 42 41 40 40 39

GFSNGP_250_spd_021.txt.gz
Wind_Speed
25 25 23 22 22 24 24 23 25 27 28 29 29 33 37 39 42 46 48 50 49 49 56 62 67 71 75 78 82 84 86 86 86 87 89 91 95 100 102 107 111 112 111 109
27 25 24 24 27 26 26 27 28 29 32 32 36 37 41 42 45 47 49 51 52 57 63 68 71 76 78 82 85 87 86 85 87 90 93 97 101 103 106 110 110 108 105 108
28 27 27 28 28 27 29 31 31 32 36 39 41 43 44 45 46 49 51 54 58 62 66 70 72 77 82 86 86 84 84 87 88 92 97 101 105 107 108 108 105 106 106 113
31 29 29 33 31 32 33 35 36 38 41 43 44 46 47 48 51 52 56 61 64 65 70 74 79 82 85 83 82 85 88 91 95 99 102 106 111 107 102 102 106 108 108 109
33 34 35 36 36 37 37 40 38 43 46 47 47 50 53 52 57 60 64 65 67 72 75 79 85 84 81 82 85 89 92 96 100 103 106 109 103 101 104 107 107 110 106 101
37 37 38 39 39 40 42 42 45 49 49 51 53 55 59 60 62 64 66 69 73 75 80 84 86 83 82 84 88 95 97 102 104 107 106 103 102 106 106 110 109 105 102 101
38 39 41 41 41 43 44 47 49 51 53 54 56 58 60 63 65 67 70 74 77 80 85 87 84 85 86 90 96 96 100 103 106 101 103 105 109 106 107 104 105 100 100 101
40 42 41 43 42 46 48 49 52 54 53 55 56 61 65 68 72 73 77 78 83 87 88 87 88 89 91 98 101 104 108 109 109 105 104 106 109 109 106 105 103 104 106 103
43 44 42 44 47 48 51 54 54 54 58 60 63 66 69 71 76 80 80 83 87 89 89 90 90 92 100 103 106 108 107 106 103 107 110 111 109 111 103 101 102 101 99 96
44 46 47 49 51 51 53 54 58 61 64 67 69 74 76 78 81 84 85 91 91 90 91 91 95 100 103 106 109 110 108 103 109 114 113 109 110 112 110 107 108 103 98 95
47 50 50 51 50 54 58 59 63 67 70 72 77 79 81 85 85 88 92 92 91 92 93 98 101 104 108 110 107 107 108 112 112 113 111 109 109 108 107 101 97 93 90 86
48 47 51 55 57 60 61 67 71 73 76 78 83 85 87 88 91 95 91 92 93 97 100 104 106 109 110 109 108 107 109 111 116 115 114 112 109 104 101 98 93 87 82 77
53 57 60 63 62 65 69 74 76 79 82 85 87 88 91 95 92 92 94 95 100 104 107 107 106 107 109 110 112 112 112 113 113 111 111 108 104 98 92 87 84 81 79 74
62 65 63 68 67 72 76 79 82 84 87 88 90 94 94 91 93 95 98 103 106 109 111 113 113 111 110 109 110 113 114 114 114 110 106 99 94 89 85 82 78 76 72 70
68 70 71 71 76 79 81 83 86 88 90 93 92 89 92 94 96 101 105 108 110 112 111 112 112 112 113 115 120 118 114 108 104 100 97 93 89 86 82 78 73 72 68 65
70 71 75 79 80 82 84 85 90 91 87 89 91 94 96 100 104 108 111 111 113 110 112 112 114 117 116 115 110 109 107 105 102 98 94 89 83 79 77 73 70 68 64 61
72 76 80 80 81 84 88 92 88 89 91 94 96 99 103 106 109 112 114 115 115 114 112 112 115 113 114 109 107 105 102 99 93 88 83 79 76 74 73 70 66 64 61 59
78 80 81 83 86 91 90 89 92 94 97 99 103 107 110 113 114 117 114 115 112 112 111 113 112 109 109 106 102 96 92 89 85 82 78 75 73 71 69 66 63 61 59 57
81 83 86 89 91 89 92 94 97 100 103 106 109 111 114 114 115 114 113 112 113 111 115 112 108 107 103 99 93 89 85 81 79 77 74 71 68 67 66 63 60 58 56 54
85 88 90 89 91 94 97 99 102 106 110 112 114 116 115 112 112 114 111 112 114 111 106 104 101 97 93 91 86 82 79 76 74 70 68 67 65 64 62 59 56 54 53 52
87 87 90 93 95 98 100 105 110 113 114 114 116 115 112 115 112 110 113 112 110 105 103 100 95 90 86 83 80 76 75 73 71 68 66 63 61 59 59 56 55 53 52 50
89 93 95 97 100 104 108 110 111 113 115 113 111 112 113 111 112 113 109 104 101 99 96 92 88 85 81 78 75 73 71 69 69 67 63 60 58 57 57 56 54 53 51 50
94 97 101 103 106 108 110 111 111 111 112 111 112 111 110 110 107 104 101 101 97 93 89 84 82 78 75 73 71 70 68 65 63 63 61 58 57 56 55 54 52 50 49 48
99 101 104 107 108 110 109 109 108 109 110 110 112 111 107 105 102 98 96 91 87 84 81 78 75 73 70 68 66 64 63 62 61 60 61 58 55 54 52 51 49 47 46 45
103 106 108 108 107 108 108 108 110 109 111 111 107 105 101 97 95 92 87 84 81 78 76 74 72 69 67 65 63 62 60 59 58 57 56 55 53 53 51 49 48 46 44 43
106 106 105 106 106 106 108 109 110 110 109 106 101 97 95 92 88 85 83 80 77 75 72 70 68 66 65 63 62 60 58 57 55 53 53 51 50 49 48 47 45 44 43 41
103 105 105 105 106 107 109 108 106 103 100 96 95 92 87 85 82 80 78 75 73 71 68 66 66 65 63 61 60 59 57 55 54 52 49 48 47 46 46 46 45 44 42 40

GFSNGP_250_spd_027.txt.gz
Wind_Speed
29 30 28 28 28 30 30 33 27 27 26 25 24 26 31 33 37 39 43 46 42 42 46 48 51 54 58 60 64 67 71 77 81 85 89 90 95 97 94 96 99 104 107 109
29 29 28 30 32 33 33 30 27 27 26 28 27 32 35 37 36 37 42 48 53 51 52 56 55 57 62 65 67 71 78 83 87 90 92 97 99 96 98 101 107 109 109 106
31 32 32 35 34 32 31 27 28 28 27 31 35 34 36 40 44 47 49 51 56 59 59 57 61 66 69 71 74 79 85 89 91 94 99 99 98 100 104 109 111 110 107 104
30 29 30 33 33 31 30 26 28 31 33 36 38 40 42 44 47 50 51 53 56 62 65 66 69 73 77 77 80 85 89 92 94 98 98 98 101 106 110 112 110 109 106 105
28 28 29 29 30 30 30 30 33 36 38 40 45 46 49 51 51 53 55 57 61 63 66 72 75 78 81 84 88 91 93 97 97 96 98 101 107 111 113 111 108 107 108 110
29 29 29 29 33 34 33 33 39 42 44 47 49 52 53 54 55 57 61 63 66 68 71 74 78 83 87 90 92 94 100 97 95 97 102 109 113 113 110 108 110 110 111 112
30 32 33 32 37 36 38 40 44 46 48 51 53 56 57 57 58 61 66 67 67 71 74 78 83 87 90 91 93 99 97 98 101 105 109 114 116 116 112 111 110 110 110 108
32 34 37 38 37 40 41 44 48 48 49 52 56 60 61 58 60 63 68 72 74 76 80 84 89 92 92 93 100 101 100 103 107 113 117 118 117 113 114 114 113 112 108 103
34 35 36 37 38 41 43 49 47 49 52 56 58 59 60 60 64 67 71 77 80 83 86 90 92 92 95 100 102 101 103 106 111 116 118 117 115 112 113 113 113 108 103 98
39 39 37 37 40 42 47 51 51 53 55 56 58 59 62 65 68 72 77 81 85 89 91 92 93 95 100 103 101 104 105 110 116 118 116 114 110 111 112 114 111 106 100 94
43 43 40 41 43 46 49 52 53 56 58 58 60 63 67 72 75 79 82 86 89 92 94 95 97 101 104 101 104 107 111 117 119 117 114 112 111 111 110 108 104 100 97 89
44 44 43 45 47 49 52 55 56 58 60 62 64 69 74 78 81 85 87 88 91 94 96 97 102 104 101 104 109 112 116 120 119 114 111 110 108 108 110 107 101 95 90 85
49 47 47 51 54 55 56 58 60 62 64 67 72 76 79 83 86 88 90 93 94 96 99 104 104 103 105 111 114 117 120 119 115 112 110 108 107 105 102 101 96 90 83 80
54 52 53 55 59 59 60 61 63 66 70 74 78 81 84 86 88 91 93 95 98 100 104 105 105 108 112 115 118 121 121 117 114 112 109 108 106 100 94 89 84 84 82 75
58 60 60 60 61 63 66 68 70 73 78 81 83 85 87 91 92 95 97 99 102 106 104 106 110 114 118 120 120 117 114 114 111 107 104 101 98 94 89 86 82 78 76 73
62 65 65 65 66 68 71 74 76 80 82 83 86 90 91 94 95 98 100 104 107 104 108 111 115 117 120 121 117 115 114 112 109 105 100 96 90 86 82 79 78 73 72 68
66 67 68 69 71 74 76 78 81 83 86 89 90 92 93 96 98 101 105 105 105 109 113 116 118 121 122 117 115 114 112 110 105 99 95 89 85 82 77 75 74 67 65 64
68 70 72 74 75 78 80 83 85 86 87 89 92 94 96 100 103 105 104 107 111 116 117 117 121 120 116 116 113 109 107 103 98 94 90 86 82 77 73 70 71 67 61 63
69 71 73 77 79 80 81 83 85 87 90 92 95 99 102 102 103 105 109 112 117 117 120 120 121 119 117 115 111 108 101 97 94 89 85 80 77 75 70 66 67 68 66 63
68 69 72 75 78 81 84 86 88 90 94 98 100 100 101 103 107 110 114 117 117 119 118 117 117 114 112 109 105 100 96 92 87 83 80 77 74 71 69 67 64 64 64 64
72 75 77 80 83 85 86 89 93 95 97 97 98 102 106 109 112 114 114 116 118 119 118 117 114 110 107 102 98 94 90 87 83 79 76 74 72 69 66 65 65 63 60 60
76 79 82 84 86 90 92 93 94 95 97 101 105 108 110 112 112 115 115 117 118 116 114 110 108 103 99 96 91 88 84 82 77 75 72 69 67 65 64 63 63 62 59 55
80 83 86 88 89 90 92 94 97 101 103 107 110 110 111 114 114 116 118 114 114 111 109 107 103 98 93 88 85 83 80 77 74 71 67 66 64 63 62 61 59 55 53 52
85 86 87 89 92 95 98 101 104 107 108 109 110 111 112 114 115 112 111 109 108 105 102 98 94 90 87 83 81 78 76 73 71 68 66 65 63 61 59 57 54 52 49 46
88 91 93 96 100 102 104 105 107 109 109 111 110 109 110 110 109 109 107 106 103 100 96 91 87 85 83 80 77 75 73 70 68 67 65 64 60 58 55 52 50 47 45 44
95 99 100 102 104 106 107 107 107 107 107 109 109 106 106 106 105 104 100 98 96 92 88 86 84 81 79 76 74 72 69 67 66 64 62 59 57 53 50 48 45 44 43 43
101 103 104 105 104 104 104 104 103 104 106 105 104 103 102 100 98 97 96 93 90 87 85 82 80 77 75 72 70 67 66 65 63 60 58 56 53 49 47 45 44 43 42 40

GFSNGP_250_spd_030.txt.gz
Wind_Speed
25 23 21 24 29 29 29 31 31 28 31 25 22 22 23 29 30 30 32 33 32 35 40 44 47 49 52 55 61 63 65 68 71 76 81 85 88 88 96 96 94 95 99 104
26 25 23 26 30 27 28 29 30 32 30 27 20 26 31 32 32 33 35 39 41 44 46 48 49 52 57 62 63 64 67 71 77 81 87 89 90 95 98 95 96 100 105 108
28 26 25 28 31 29 32 31 30 31 27 28 29 31 31 33 37 40 42 44 48 50 51 54 56 60 64 66 66 69 73 78 83 87 89 91 94 99 95 98 101 104 108 106
30 26 27 32 30 32 32 32 30 28 29 31 32 32 34 38 42 45 49 52 55 56 58 60 63 66 68 70 73 76 81 85 88 91 91 94 100 96 100 103 110 113 114 111
28 28 28 30 30 29 27 27 27 30 32 34 35 38 40 43 47 51 55 57 58 60 61 64 67 70 73 76 80 84 87 90 92 93 96 102 97 99 104 110 113 117 115 111
33 30 28 31 31 26 24 24 31 33 34 37 41 43 46 48 52 56 58 59 60 61 63 67 71 73 77 82 86 89 92 94 96 97 103 99 102 107 110 113 118 118 115 113
35 32 31 34 30 29 27 32 35 38 40 42 44 47 50 52 55 59 61 62 63 64 66 70 74 77 82 86 90 92 94 96 96 102 100 101 105 110 113 119 120 114 112 112
38 36 35 34 33 33 34 38 40 40 42 45 47 49 52 55 58 60 62 64 66 68 73 77 80 84 87 90 92 95 96 98 102 102 102 105 110 113 118 120 114 114 115 113
40 40 38 36 37 38 41 42 43 44 45 47 50 53 55 58 61 62 64 65 69 73 78 82 85 89 91 92 96 96 98 101 102 102 105 109 113 116 120 117 115 116 114 110
42 43 42 42 42 42 44 44 45 46 49 52 55 57 59 60 63 65 66 69 73 78 82 86 89 91 93 96 97 99 101 103 102 106 110 111 115 118 117 116 115 114 109 105
43 46 45 47 46 46 47 48 49 51 53 55 57 59 62 65 67 68 71 75 80 83 86 89 91 94 96 98 99 101 103 102 106 110 112 115 118 118 115 114 113 108 104 99
47 47 48 49 51 51 51 50 51 52 55 59 62 65 67 70 71 72 76 81 84 88 91 93 96 97 98 99 101 104 103 106 111 113 115 116 117 116 116 113 109 104 100 92
52 52 52 53 55 55 56 56 56 59 62 64 66 69 70 71 74 79 82 85 88 91 95 97 97 99 100 102 103 104 108 112 115 115 116 116 115 114 111 110 106 103 98 91
53 55 55 56 57 58 60 61 63 65 66 68 70 72 74 77 81 84 86 89 92 96 96 98 100 101 103 102 105 109 112 114 115 119 119 118 115 113 108 103 97 93 92 89
56 58 59 59 60 61 63 66 68 69 71 72 74 76 79 82 84 87 90 93 95 97 98 100 102 102 102 106 109 112 112 114 116 116 115 112 110 105 101 94 88 82 81 82
59 61 61 63 63 64 66 68 70 73 74 76 77 80 82 85 88 91 92 94 97 97 99 102 101 104 108 110 111 113 115 115 116 114 112 110 105 100 95 88 82 77 75 75
61 62 65 66 66 66 68 70 71 74 76 79 81 83 84 86 89 92 95 96 98 100 101 103 107 111 112 113 114 115 114 114 111 110 107 104 99 93 88 84 79 74 71 70
68 68 67 67 68 70 73 72 74 76 78 80 81 83 85 89 92 94 96 100 100 101 104 109 112 112 113 114 115 112 110 110 109 105 102 97 91 87 83 78 75 70 68 65
68 68 69 70 71 74 75 76 77 78 79 81 84 87 90 92 95 98 100 101 103 108 111 113 114 114 115 115 113 112 110 108 104 100 93 89 84 81 79 75 71 67 64 62
70 71 72 72 73 75 77 78 80 82 85 87 89 92 94 98 99 99 102 106 110 112 113 115 115 115 114 112 110 109 105 102 96 89 86 82 79 77 75 72 69 66 65 62
72 73 74 75 76 77 79 81 83 86 89 91 94 97 98 99 102 105 108 111 114 115 114 114 112 112 110 108 107 103 99 93 87 83 80 78 76 73 70 67 66 64 63 62
74 74 74 75 77 79 82 84 87 90 93 96 97 98 102 104 108 111 114 115 115 113 112 111 110 108 105 104 101 96 90 85 82 79 76 74 71 69 66 65 63 62 59 58
77 79 80 81 83 85 87 90 93 95 96 97 101 104 107 111 114 116 114 113 112 110 108 107 104 104 102 99 94 88 84 80 78 76 73 70 67 66 65 64 61 58 56 53
79 81 84 88 90 91 91 91 93 97 101 103 106 110 113 115 114 113 112 110 107 105 104 102 101 99 96 91 86 83 80 78 75 72 69 66 65 64 63 61 59 55 51 49
83 84 86 89 90 92 95 98 101 104 107 110 110 111 111 112 113 110 106 103 102 101 101 99 95 92 89 86 82 80 77 75 71 67 65 65 64 62 60 57 54 50 47 46
88 90 92 95 98 100 102 104 106 108 109 108 107 108 108 106 104 102 100 99 99 97 95 92 89 87 85 82 79 77 74 70 65 64 64 63 61 58 56 52 49 47 45 44
94 96 98 100 102 104 104 104 103 104 105 105 103 101 99 99 98 96 96 96 95 93 90 87 85 82 80 78 75 71 67 65 64 63 62 60 57 55 51 48 46 44 43 41

GFSNGP_250_spd_033.txt.gz
Wind_Speed
25 21 21 23 26 25 23 23 21 23 21 26 22 25 30 32 33 33 28 29 31 33 37 38 36 41 50 54 58 61 63 66 69 71 72 76 80 85 87 89 89 92 96 95
25 22 23 26 27 27 20 21 23 22 24 25 24 28 32 34 34 30 30 34 35 38 39 41 45 49 53 58 60 63 66 69 72 73 75 81 85 86 89 90 92 97 96 99
28 22 21 26 30 24 23 23 25 26 29 28 29 29 33 32 31 32 35 36 38 42 44 47 50 53 56 58 62 65 68 71 74 78 81 85 87 89 89 91 96 96 98 104
32 26 21 31 29 29 27 26 26 29 31 30 28 29 30 32 35 36 37 40 43 46 50 53 55 58 62 64 66 69 73 76 79 82 87 89 90 92 94 97 98 98 104 105
31 29 25 32 31 31 28 27 27 29 30 29 27 27 31 35 37 39 42 45 48 51 55 56 60 63 64 66 69 73 77 80 84 87 90 91 95 95 95 99 99 103 106 109
32 32 27 35 30 33 30 28 30 29 27 27 27 29 33 37 41 44 46 49 52 55 57 60 63 65 67 69 74 78 82 85 88 92 95 98 97 99 102 100 104 107 109 112
38 33 30 37 30 34 33 37 32 32 31 29 31 35 38 41 44 47 50 53 55 57 59 62 65 68 70 74 78 82 86 89 92 95 97 99 100 102 102 104 107 109 110 115
41 36 33 37 36 37 40 39 37 35 35 36 37 39 42 46 48 52 55 56 58 62 65 67 70 73 75 79 83 87 90 94 97 99 100 100 102 101 104 107 109 111 114 117
45 39 37 39 40 40 41 41 42 41 41 41 43 46 48 50 52 55 57 59 62 65 69 72 75 77 80 84 88 91 95 97 99 100 100 102 101 104 108 110 110 113 116 115
44 41 41 43 44 43 43 45 47 47 46 46 49 50 52 54 56 59 61 63 67 70 74 76 79 81 85 88 91 94 97 99 100 100 102 101 104 108 109 111 113 116 116 115
43 45 44 45 47 48 47 48 49 51 52 52 54 55 57 59 60 62 66 69 72 75 78 80 82 85 88 91 94 97 99 99 100 102 102 105 109 111 111 114 116 115 116 115
45 47 46 49 48 49 50 50 52 54 56 58 59 60 62 64 67 69 72 74 77 80 81 83 85 87 90 94 96 97 99 100 103 103 107 110 112 111 113 115 115 116 115 114
45 46 47 49 51 52 54 54 55 57 59 61 63 65 68 70 72 75 77 79 80 82 85 86 88 90 92 94 97 98 102 104 105 109 112 114 114 114 112 113 119 119 116 111
50 50 51 54 54 55 56 56 58 59 61 64 67 68 70 72 74 75 77 79 82 84 86 88 90 91 94 97 99 103 104 105 109 112 115 115 114 114 114 112 109 108 109 103
51 55 57 58 58 58 59 60 61 62 65 67 69 71 72 73 75 77 79 82 84 86 89 90 92 95 98 100 104 105 107 111 113 116 115 114 113 114 111 109 106 100 96 93
60 58 59 60 61 62 63 64 67 69 71 72 74 75 77 79 81 83 84 85 88 90 91 94 97 99 101 105 106 109 112 115 116 116 114 114 114 110 109 106 101 96 90 86
65 64 66 66 65 64 66 67 69 71 72 74 76 78 80 83 85 86 88 91 92 94 96 98 101 103 106 107 110 113 116 118 117 115 113 112 109 108 105 100 94 90 85 81
69 69 71 70 68 68 71 74 75 75 76 78 79 81 83 86 87 89 92 94 96 98 100 102 105 107 108 111 113 117 117 115 114 113 111 108 107 103 97 92 88 83 80 75
71 73 75 76 78 79 80 80 80 78 79 80 81 84 86 89 91 92 95 97 98 100 103 105 106 110 111 114 117 115 114 113 111 109 107 106 102 96 89 85 81 77 74 70
78 80 84 81 80 81 83 86 84 84 84 83 85 88 90 91 94 95 97 99 101 103 104 109 111 114 116 116 115 114 112 110 107 105 103 99 94 88 84 80 76 73 70 67
84 85 86 86 85 85 86 88 92 91 90 90 91 92 94 97 97 98 102 102 104 108 110 113 115 115 113 114 113 110 107 105 103 100 95 91 86 82 78 75 72 69 68 65
83 86 87 88 89 91 90 91 91 91 89 90 92 95 96 99 102 102 104 107 110 112 114 113 112 112 112 110 108 105 103 100 97 92 88 83 80 77 74 71 69 67 65 63
83 84 85 87 88 89 89 91 89 90 92 94 97 99 100 102 105 107 110 112 113 111 109 110 110 108 107 106 104 100 98 95 91 87 82 79 75 73 70 69 66 64 62 60
81 84 86 87 89 91 93 91 92 94 96 98 101 104 107 109 110 112 111 106 106 108 108 106 105 104 103 102 100 96 93 90 86 82 78 74 71 69 67 65 63 60 58 56
79 82 85 88 90 90 91 93 95 98 101 105 108 110 111 110 106 103 104 105 105 104 103 102 101 100 100 98 95 91 88 85 81 77 74 71 68 66 64 62 60 58 54 52
83 84 86 87 88 92 95 98 101 104 107 107 106 104 103 103 103 103 101 101 101 100 101 100 98 97 94 91 88 85 82 79 75 73 70 67 65 63 62 59 56 53 50 48
85 87 89 91 93 95 98 99 99 99 100 101 102 101 101 100 100 101 100 99 99 98 96 94 92 89 86 84 82 79 76 74 72 69 65 63 62 61 58 56 52 49 46 44

GFSNGP_250_spd_036.txt.gz
Wind_Speed
40 33 27 22 20 20 22 25 25 30 26 26 27 28 29 32 35 33 33 31 29 30 32 32 32 35 37 43 47 51 55 60 63 66 69 70 73 76 78 80 85 89 92 96
39 34 29 22 25 24 24 23 23 29 30 31 30 29 29 31 34 38 37 37 34 33 34 35 38 41 46 48 52 57 62 66 67 70 72 75 76 79 81 84 88 92 97 96
41 35 28 25 29 23 20 21 23 27 32 31 30 30 30 32 37 39 40 40 37 36 38 40 43 46 50 53 58 62 65 67 70 73 75 77 79 82 85 89 95 96 98 100
41 33 29 33 32 29 22 23 22 25 30 32 31 31 34 36 38 40 39 39 39 41 42 44 47 51 55 60 63 65 67 70 73 76 78 80 83 87 90 94 96 101 102 103
42 40 33 36 36 32 28 24 27 29 29 31 32 32 32 34 37 37 37 39 41 43 46 48 52 56 61 64 65 67 70 74 76 79 82 84 87 91 94 97 100 101 103 105
47 45 37 41 40 34 31 28 35 32 28 29 32 32 31 30 33 35 37 41 44 47 49 53 57 61 63 65 68 71 73 75 79 82 84 87 91 94 97 99 101 102 106 105
46 46 44 44 43 36 34 40 32 33 33 33 33 34 36 35 35 38 41 44 46 50 53 57 60 62 65 68 71 74 77 79 82 85 88 90 93 97 99 101 102 106 104 110
50 48 48 47 46 39 36 41 37 33 35 36 38 39 40 40 41 43 46 48 51 54 57 59 62 66 69 71 73 76 79 83 86 89 91 93 97 98 100 102 106 106 108 113
48 50 51 50 47 43 37 38 40 38 37 38 41 44 45 46 48 50 52 54 56 59 61 64 67 70 72 74 77 80 84 87 89 92 94 96 98 100 102 107 107 109 113 117
50 52 56 53 49 49 41 39 39 42 42 42 43 46 48 51 53 55 57 59 62 65 67 69 71 73 75 78 82 85 87 89 91 93 95 96 99 102 106 110 110 114 117 118
51 57 58 53 54 54 47 45 44 44 46 48 48 49 51 53 56 58 60 63 66 68 71 72 74 77 81 83 85 87 89 91 93 95 97 101 104 106 110 112 114 117 118 118
54 62 58 59 56 54 50 47 46 46 48 50 52 54 56 58 60 62 65 67 69 72 75 77 80 82 84 86 88 90 93 95 97 99 102 104 106 110 113 115 118 120 120 118
58 59 60 57 54 54 50 48 49 50 52 54 57 59 62 64 66 68 70 72 75 78 80 82 84 86 89 91 93 95 96 98 100 103 105 108 111 111 112 116 119 121 121 120
59 61 57 55 54 50 51 52 54 55 56 58 60 62 64 66 68 71 74 77 79 81 83 85 87 89 91 93 94 96 98 100 103 105 108 111 112 115 115 113 112 113 116 116
63 55 53 54 54 56 58 59 58 58 60 61 63 66 69 71 72 73 74 77 80 83 84 86 88 91 92 94 96 98 101 103 105 108 110 113 115 116 116 115 113 110 110 111
67 60 55 59 63 64 65 65 66 66 67 68 69 73 73 75 75 79 81 84 85 87 90 91 91 93 95 97 99 102 104 106 107 110 113 116 116 115 114 112 111 111 109 103
62 59 60 65 69 69 71 70 71 74 74 74 75 78 80 81 85 87 90 93 93 93 94 94 95 98 100 101 103 104 107 109 112 115 117 116 114 113 111 111 110 108 101 93
65 65 65 65 67 69 69 71 75 77 79 80 82 84 87 88 90 93 94 96 96 99 98 97 96 98 100 102 104 108 111 114 117 117 114 113 112 110 112 109 103 96 90 86
62 64 67 68 71 71 73 76 81 82 86 90 93 93 93 94 94 95 96 98 98 100 97 98 100 101 103 108 112 114 117 117 114 113 112 110 110 110 106 100 93 88 83 80
69 67 68 74 78 80 80 82 86 92 94 93 92 93 92 94 94 95 97 99 100 100 101 102 104 107 111 114 117 117 115 111 112 109 110 109 109 103 98 91 87 83 79 76
75 76 75 80 85 88 87 86 88 90 94 95 96 96 97 95 95 98 100 103 104 103 104 106 109 112 116 117 115 113 112 109 109 110 110 108 102 96 91 87 83 79 75 73
79 83 84 79 79 83 90 95 96 97 98 99 97 95 95 96 98 101 104 104 104 106 108 110 113 116 115 115 114 110 109 109 111 109 105 99 94 91 86 82 79 76 73 70
74 69 69 72 71 72 77 81 87 90 90 89 91 94 97 100 101 103 103 103 105 108 111 113 113 114 114 111 111 111 111 109 106 103 97 93 90 85 82 79 76 73 69 67
75 77 79 79 80 83 86 90 94 95 95 96 97 98 98 99 100 102 103 106 108 109 110 113 113 111 111 111 110 108 106 104 101 96 92 88 84 81 78 75 72 68 66 62
85 90 90 91 94 98 99 96 92 92 93 95 96 98 100 101 102 104 105 107 109 111 110 110 111 110 109 107 105 104 101 96 93 90 85 83 80 77 73 70 68 65 61 57
91 94 95 93 91 90 90 90 91 92 94 97 97 98 100 102 104 106 108 107 109 111 112 110 108 106 104 101 99 95 92 89 86 82 80 78 75 71 69 66 62 60 56 53
91 90 89 90 91 92 93 93 93 93 94 96 98 101 103 104 105 106 108 108 106 104 103 102 100 98 95 92 89 87 84 82 80 78 75 72 69 67 63 61 58 56 53 49

GFSNGP_250_spd_042.txt.gz
Wind_Speed
39 36 36 35 37 35 34 29 29 33 28 31 27 29 30 32 32 33 32 32 33 31 32 37 38 39 41 44 44 44 43 48 51 52 55 59 63 67 71 74 77 79 82 85
42 37 38 36 40 35 34 31 28 31 36 34 33 34 33 32 33 35 36 37 37 39 39 39 39 41 41 39 43 47 51 54 55 57 60 64 68 71 74 77 79 82 85 89
43 38 38 39 39 37 38 33 30 26 32 32 34 35 34 33 32 33 37 38 39 39 41 42 43 42 42 44 47 50 54 57 60 62 65 67 70 73 76 79 82 85 87 89
43 39 36 45 36 40 38 37 30 30 30 31 32 33 35 36 33 33 35 36 39 40 41 44 46 47 47 47 48 49 51 54 58 62 65 68 72 76 78 82 84 86 89 92
42 40 40 43 42 41 35 40 32 31 29 30 34 33 35 37 37 37 35 34 34 36 38 39 40 41 43 44 46 48 51 55 59 63 68 71 74 77 80 82 84 88 90 91
44 41 37 51 46 43 39 41 35 34 35 35 37 34 34 37 40 40 40 40 37 38 39 41 41 43 45 47 49 53 56 60 63 66 69 72 75 77 80 83 83 86 91 93
46 43 43 52 44 43 38 40 38 37 37 39 37 37 37 36 38 41 43 43 43 43 43 43 44 46 48 50 52 55 58 61 64 66 70 73 76 78 79 81 85 89 92 95
47 44 41 53 46 45 44 39 39 41 39 41 44 44 43 39 40 41 43 45 47 44 44 45 47 49 50 53 55 58 60 63 66 69 72 74 75 78 81 86 91 94 96 98
49 46 49 49 46 46 44 42 40 42 43 45 46 46 48 44 45 43 46 47 47 48 48 48 49 51 53 56 58 60 62 64 66 69 73 75 79 84 89 92 95 98 99 100
50 49 51 50 51 47 46 45 43 45 47 49 50 52 49 48 48 47 45 47 49 51 50 49 49 51 53 55 57 59 63 67 70 75 79 83 88 94 98 100 100 98 98 101
49 51 54 54 51 51 46 43 47 48 50 52 53 54 51 49 53 54 48 49 50 51 52 54 56 58 59 61 63 67 70 74 78 82 87 92 96 98 96 94 96 98 101 104
52 59 59 54 52 48 44 47 50 51 51 54 53 55 56 55 57 58 57 54 52 53 55 58 60 63 65 65 67 72 77 82 84 88 94 95 96 94 95 97 98 102 103 102
55 58 57 52 50 49 46 50 52 53 55 56 57 62 64 62 61 63 60 59 61 63 63 65 67 64 67 72 75 79 82 87 90 93 95 93 96 95 96 98 100 102 104 106
56 57 54 53 51 50 51 54 56 56 58 63 64 63 64 64 65 63 63 61 63 66 70 71 73 75 77 78 80 84 87 89 89 89 89 90 92 96 98 99 102 105 106 108
58 59 58 58 56 57 57 60 59 60 64 68 66 68 63 66 65 64 60 63 66 69 69 72 73 72 73 77 79 82 82 86 89 89 92 94 96 98 101 104 106 107 109 111
61 59 57 58 59 60 61 64 63 64 67 73 70 62 60 62 61 62 62 65 67 72 74 73 70 69 73 76 86 90 92 91 90 93 98 99 101 103 106 107 108 110 112 111
64 62 62 61 60 60 61 63 64 70 74 68 70 71 67 69 70 67 69 73 73 77 82 82 80 83 86 92 99 102 104 106 106 106 107 107 106 107 108 109 111 113 113 112
67 65 64 63 62 65 67 67 71 74 71 70 72 77 79 74 73 71 75 80 84 85 88 92 95 97 103 107 111 113 113 115 118 115 112 110 110 110 111 112 113 114 114 108
67 68 67 66 67 69 69 73 72 72 76 81 80 83 83 76 76 81 85 90 93 93 93 98 101 104 109 111 113 116 117 119 119 115 114 114 114 114 113 114 115 113 107 100
68 70 71 71 72 76 75 78 82 85 84 88 76 74 75 77 84 93 95 94 97 100 103 106 108 111 116 120 120 119 121 120 117 117 117 117 116 115 115 114 111 105 98 94
74 76 77 74 79 84 85 85 86 86 77 81 75 72 83 85 93 101 97 102 101 105 111 115 115 119 122 123 124 123 121 120 118 118 118 117 116 115 112 109 103 98 93 89
79 81 78 77 83 88 86 86 86 83 78 79 84 90 88 97 101 104 105 107 110 113 113 117 122 125 128 128 125 123 121 117 118 118 117 115 114 111 106 101 96 92 89 85
76 83 86 84 83 86 87 85 86 86 85 89 92 93 98 102 107 110 113 114 115 120 124 128 130 131 130 123 122 119 117 117 117 116 114 109 105 101 98 95 92 89 84 80
81 84 84 85 86 86 88 88 92 93 93 95 98 103 106 109 112 114 117 121 125 127 128 127 123 119 119 117 116 116 117 115 113 109 104 100 97 94 91 89 86 83 79 75
83 82 83 83 83 85 88 91 95 99 101 105 108 112 114 116 117 121 121 120 118 116 117 117 114 113 115 114 114 113 111 106 101 97 95 93 91 88 85 84 81 77 74 70
83 83 84 87 89 91 93 94 96 101 102 99 99 101 104 108 110 113 116 112 109 110 112 112 111 111 111 109 107 103 99 95 93 91 89 87 85 83 80 77 74 71 68 65
74 76 81 85 88 88 90 94 95 97 100 102 104 106 108 109 107 107 108 108 108 108 108 107 106 105 102 99 95 93 92 90 89 87 85 82 79 77 74 72 70 68 65 62

GFSNGP_250_spd_045.txt.gz
Wind_Speed
48 43 42 39 40 38 37 38 40 39 38 34 26 25 23 23 27 30 34 35 34 36 37 38 37 38 38 41 44 45 41 41 41 45 49 52 56 60 64 68 71 74 77 81
55 48 45 45 44 41 36 39 39 40 39 36 32 27 26 24 25 29 33 37 38 38 37 37 39 40 42 43 43 41 44 47 50 50 52 57 60 64 67 70 73 76 80 81
55 51 47 40 46 43 37 39 40 40 39 38 36 29 27 27 26 29 33 37 40 41 41 41 41 41 40 39 41 45 48 51 53 55 55 57 60 63 67 69 71 72 76 80
59 54 45 46 46 43 41 42 38 39 39 38 38 35 31 30 27 27 31 36 38 42 41 39 38 38 39 41 42 44 43 42 43 45 47 49 52 56 61 66 70 74 78 81
57 53 47 48 46 45 41 40 38 38 39 38 37 36 36 32 31 31 31 32 35 39 41 43 43 43 42 42 43 44 45 47 48 50 53 55 58 62 65 69 73 75 79 81
56 57 49 53 52 50 44 45 42 36 37 38 37 38 39 39 37 34 34 33 33 35 41 44 45 46 47 47 47 48 49 51 53 55 58 60 62 64 67 70 73 75 79 84
65 59 52 56 56 54 43 54 42 40 39 38 39 40 43 41 42 40 40 37 36 38 40 43 47 49 49 50 50 51 53 55 56 57 59 61 63 63 66 70 74 80 86 92
65 62 53 59 62 53 52 50 43 46 45 43 41 43 44 45 45 44 45 43 42 46 46 44 45 49 51 52 52 52 51 52 53 56 58 60 64 68 73 78 82 86 91 95
64 57 58 63 57 55 54 51 48 48 48 45 44 44 47 50 49 48 50 49 48 49 49 52 47 49 50 50 49 50 53 56 59 62 65 66 69 74 79 83 86 90 93 96
60 54 57 59 58 56 57 54 51 52 51 52 51 48 49 51 52 53 53 53 56 60 57 53 53 49 51 52 54 55 57 60 62 63 65 70 74 76 79 82 84 90 95 100
54 56 58 56 59 64 60 54 57 57 56 57 52 49 51 54 56 57 58 57 59 62 61 60 56 55 56 56 56 58 62 64 65 68 70 72 71 71 75 83 91 92 90 90
58 58 60 58 63 58 56 56 60 61 60 58 52 50 52 56 59 60 63 63 62 66 61 62 57 57 56 54 54 55 62 64 67 70 72 68 74 83 93 97 101 95 94 99
57 61 60 59 59 60 59 56 59 60 60 58 56 55 54 59 62 64 67 68 70 66 66 65 60 58 60 59 59 64 69 70 67 70 74 83 89 92 97 104 104 104 106 107
60 58 58 58 60 64 62 57 59 59 59 59 58 59 57 61 66 67 68 71 71 68 67 69 68 69 68 68 65 70 75 79 79 81 86 89 94 101 107 108 110 113 114 118
64 63 58 58 60 64 69 63 62 62 65 65 64 62 61 66 68 70 73 73 72 74 76 75 79 76 71 69 74 78 81 85 87 92 98 105 108 108 111 119 121 125 127 121
67 63 60 60 63 66 69 71 69 68 68 67 65 64 67 72 73 74 77 77 79 77 81 87 85 79 79 81 83 86 92 97 97 100 105 113 113 115 125 126 128 132 124 122
65 66 64 64 65 65 67 69 70 71 70 70 71 76 78 77 77 77 79 83 85 86 91 96 91 83 79 85 91 98 102 102 105 110 115 117 122 126 125 129 134 125 123 121
68 69 69 66 65 67 66 67 69 70 73 77 80 80 79 80 80 82 85 88 87 95 100 95 91 88 90 96 100 106 112 114 119 120 122 124 128 131 134 128 122 125 123 125
71 71 72 72 73 73 74 74 76 76 78 81 83 82 84 84 85 87 90 95 99 96 91 86 86 89 96 103 109 112 116 120 122 126 128 130 133 133 128 127 125 125 127 124
72 74 74 74 75 75 75 78 81 81 81 82 86 86 90 90 91 93 92 99 97 92 93 93 92 96 104 111 113 116 119 122 128 132 131 133 130 129 128 125 127 125 123 120
78 76 77 78 79 80 81 82 84 85 86 88 89 90 94 97 100 98 100 99 95 96 98 100 104 109 116 118 119 122 127 129 132 132 131 128 128 123 127 126 123 122 116 110
81 82 82 84 84 85 85 88 90 90 90 92 94 95 98 98 99 100 98 98 100 101 104 108 114 117 117 122 124 126 128 127 126 124 127 127 126 123 123 122 116 110 105 101
79 81 82 82 83 85 87 90 93 95 95 97 98 97 98 100 102 102 103 106 108 111 112 115 117 118 122 126 125 123 124 127 127 123 121 122 122 120 116 110 105 102 98 94
81 83 84 84 87 89 90 92 95 97 99 98 97 98 99 102 104 106 108 108 109 112 115 118 120 120 120 122 125 123 121 120 120 122 119 118 115 108 105 102 98 95 91 88
88 89 91 91 92 92 94 97 99 99 99 100 101 102 104 105 105 105 103 106 109 110 110 113 115 117 117 117 118 117 119 118 115 116 112 105 102 99 97 94 91 88 85 81
82 85 88 91 93 95 97 98 98 99 100 101 102 102 101 102 102 104 105 105 107 108 108 110 112 114 115 116 116 115 113 111 106 102 100 98 95 93 91 87 84 81 78 74
80 83 86 88 89 91 93 95 97 100 101 101 101 100 101 102 103 104 105 107 110 111 111 110 111 111 112 112 109 106 101 98 97 95 93 91 89 86 82 79 76 74 71 67

GFSNGP_250_spd_048.txt.gz
Wind_Speed
51 45 56 56 48 43 39 37 40 41 38 39 38 36 38 34 29 25 26 25 28 27 25 28 29 31 36 38 39 36 32 38 42 46 47 50 52 52 55 58 59 61 64 68
65 53 53 58 53 45 39 43 41 38 38 40 36 36 39 36 33 31 28 26 25 28 26 31 32 31 33 33 36 37 43 43 46 47 50 50 54 57 59 61 63 64 64 64
65 54 51 52 54 51 45 47 42 40 38 39 37 37 38 37 35 34 33 30 27 28 26 27 32 32 35 37 37 39 41 42 45 46 46 46 47 48 49 52 54 57 60 63
66 58 49 52 57 61 54 49 46 43 39 39 36 39 38 38 38 36 34 33 31 27 27 22 24 28 32 38 40 41 42 44 46 47 48 50 51 52 54 57 59 63 66 68
64 61 50 50 61 64 57 52 48 43 41 37 40 43 42 40 42 39 39 37 38 35 29 29 29 31 33 36 38 43 46 47 49 51 52 54 56 58 59 62 64 65 68 70
72 67 57 51 58 63 60 46 53 47 45 45 42 43 48 42 45 42 42 42 41 43 42 37 37 39 43 42 41 40 44 48 51 53 55 56 59 60 60 61 63 66 65 70
76 72 66 51 61 63 51 54 58 52 48 47 48 45 49 44 43 45 48 47 46 46 47 47 44 45 46 47 48 45 44 47 49 50 51 53 54 56 60 63 61 66 72 73
80 77 69 68 56 53 59 62 56 54 51 49 48 45 50 50 50 48 49 49 52 53 52 54 53 52 53 56 54 52 50 50 52 54 56 57 58 60 61 64 66 70 73 74
82 78 71 73 65 62 64 64 63 59 55 55 50 52 53 55 54 54 52 49 52 55 55 57 57 57 60 61 58 56 58 55 55 56 55 55 56 58 59 63 66 70 70 73
76 68 69 69 72 75 73 73 68 62 57 58 51 56 57 56 57 59 56 54 53 55 57 60 61 62 64 64 64 62 63 61 60 63 61 59 59 62 64 69 71 74 75 80
71 68 70 72 69 73 71 63 58 60 59 57 57 60 61 60 59 61 59 57 55 56 57 62 64 66 68 70 70 69 68 67 68 72 71 67 68 66 71 72 79 78 82 92
69 68 71 75 74 82 71 63 63 64 61 63 62 64 63 65 66 66 64 61 60 59 59 65 67 69 71 74 76 75 74 75 75 80 74 73 69 75 81 83 85 88 95 101
72 70 73 69 71 70 64 66 64 66 66 66 65 63 63 65 69 71 64 63 65 66 68 70 72 73 74 79 80 80 80 81 84 88 82 80 80 85 84 85 92 97 104 110
69 71 66 66 68 69 67 67 68 69 68 69 65 65 63 63 65 69 66 65 68 72 74 76 78 80 80 82 84 85 87 87 87 91 91 84 83 86 88 94 101 109 115 117
65 65 64 65 69 68 66 67 68 72 71 70 66 66 70 70 71 68 67 69 71 75 80 83 84 86 85 86 86 90 93 93 95 102 94 91 92 95 96 103 112 118 121 120
61 64 63 64 64 64 68 68 70 73 75 74 70 71 72 74 72 71 71 74 78 81 85 88 90 89 88 90 93 95 98 97 104 105 97 99 99 102 104 111 119 124 125 129
64 64 62 62 64 68 69 70 70 73 73 73 77 79 78 74 73 74 76 79 82 86 90 92 90 90 92 93 96 98 105 108 110 104 102 103 104 108 114 118 125 130 133 135
60 64 65 66 69 71 71 71 72 71 73 72 74 78 79 77 77 78 81 85 90 91 92 93 93 95 96 98 103 107 109 111 108 108 107 109 113 114 119 124 131 134 134 132
65 61 62 64 65 68 71 72 72 74 74 75 78 79 80 83 85 86 88 89 91 93 94 96 99 102 104 106 106 112 112 109 110 111 111 114 117 123 128 129 129 127 129 129
71 67 64 69 72 72 73 77 80 82 82 83 82 83 85 87 88 90 93 95 96 96 98 102 105 108 110 114 114 111 110 111 112 113 117 121 125 127 128 127 130 128 129 130
73 72 71 73 75 78 77 77 79 81 82 83 84 87 89 90 94 96 97 100 102 104 105 108 110 112 112 112 111 113 114 115 116 119 117 119 124 126 125 128 129 128 126 126
76 76 77 78 79 80 82 82 83 86 88 89 90 92 93 96 99 102 105 103 104 107 107 108 110 113 113 113 115 116 117 118 119 118 121 122 123 124 124 125 126 127 124 119
79 82 84 83 84 87 89 91 91 92 90 94 98 100 102 104 105 106 107 106 105 107 108 110 111 114 116 115 115 117 116 117 119 122 122 124 122 122 124 123 122 117 112 108
79 80 81 83 86 89 92 93 94 95 95 96 96 98 101 103 106 107 107 108 110 111 113 116 116 115 113 114 115 115 116 119 120 121 120 120 120 120 118 115 109 105 102 99
84 85 86 88 90 91 93 94 95 96 97 98 99 101 103 105 106 108 109 110 112 113 112 109 109 109 110 112 115 115 116 119 118 119 118 116 113 108 103 101 99 96 94 91
86 89 91 92 93 95 97 98 100 101 100 101 102 103 104 104 105 106 106 106 104 105 106 107 111 113 113 114 115 116 115 115 114 110 107 105 101 99 97 94 92 89 84 81
78 81 85 88 91 92 93 93 93 94 94 95 96 97 98 99 99 99 99 101 103 105 107 109 110 112 114 113 112 110 106 103 100 98 96 94 93 90 88 86 82 79 76 75

GFSNGP_250_spd_051.txt.gz
Wind_Speed
54 56 48 39 42 39 42 39 42 46 36 36 39 36 37 36 36 35 30 29 23 21 18 21 20 26 29 33 38 42 49 51 50 49 52 54 55 58 59 61 62 65 65 66
63 57 58 47 44 42 41 41 39 48 45 41 38 37 38 37 37 36 38 34 32 24 22 24 25 15 16 18 24 33 40 42 44 46 50 49 51 54 55 56 57 57 57 58
68 63 62 54 43 46 44 45 45 47 49 39 43 40 39 35 33 34 40 39 34 34 29 23 22 22 17 16 21 25 26 31 37 42 45 48 51 52 53 54 55 57 59 61
78 73 72 55 53 54 53 47 42 47 53 52 49 45 39 38 37 40 39 41 39 35 33 30 26 28 28 26 27 28 29 28 31 33 39 44 48 51 54 55 57 60 62 64
85 79 66 56 55 58 56 49 46 51 54 58 52 50 44 45 41 37 45 44 43 42 40 37 34 33 35 34 35 36 33 34 36 37 36 35 34 39 46 54 60 63 64 64
93 85 71 57 58 62 60 46 48 53 59 58 49 49 44 47 42 44 46 46 46 46 46 45 41 43 45 46 43 43 41 44 44 44 44 44 46 47 50 50 56 61 66 66
96 89 73 68 64 72 64 46 58 58 58 50 46 45 47 50 50 49 46 47 46 50 50 50 47 47 48 50 50 48 49 50 51 52 52 52 53 51 52 57 62 64 63 63
100 93 84 76 71 74 64 66 67 58 58 50 47 48 51 52 46 49 52 51 51 50 52 54 53 52 53 53 52 51 53 54 55 57 59 60 59 61 63 63 68 69 66 67
93 82 77 76 74 75 75 73 71 67 57 50 44 49 52 53 54 59 59 55 52 54 56 54 56 58 58 58 54 54 59 63 64 63 67 68 69 68 70 71 72 75 77 73
79 77 78 75 76 81 79 77 76 72 68 65 60 51 56 58 61 61 62 59 58 57 59 57 57 63 64 63 61 61 64 68 68 67 71 75 75 74 73 75 77 79 82 83
77 76 76 76 80 82 82 80 80 77 74 72 70 64 65 66 64 63 62 61 63 63 65 65 64 68 70 67 66 67 72 75 75 75 76 80 82 83 80 81 83 87 87 94
76 77 76 76 77 79 79 81 81 81 78 76 71 72 73 68 60 61 63 64 66 67 68 71 74 73 73 70 70 74 78 79 79 81 83 86 89 87 85 87 90 95 96 98
77 77 75 72 71 75 77 73 76 75 74 73 76 73 72 72 72 66 67 68 70 71 73 75 75 77 76 71 74 80 81 83 86 86 89 92 88 88 91 95 99 99 103 104
75 75 72 70 69 68 69 70 74 74 72 70 73 72 73 75 78 74 70 73 73 75 76 76 80 81 79 75 79 82 84 86 89 91 93 90 93 94 96 101 102 106 109 105
73 74 70 70 71 69 68 68 72 72 73 73 74 75 73 73 70 72 72 76 77 79 79 81 83 84 82 79 80 82 86 91 93 94 93 95 97 99 103 103 108 112 111 106
68 70 72 73 72 69 65 67 69 71 72 72 73 74 75 76 74 72 72 73 76 80 80 83 85 84 85 85 85 89 94 95 93 94 99 101 103 106 109 111 115 112 110 106
64 66 69 70 70 67 66 66 68 70 71 72 75 78 79 77 78 77 76 77 78 80 77 84 80 85 89 91 94 95 95 94 97 101 105 109 112 115 113 117 113 113 111 112
63 65 66 66 65 64 66 68 70 71 72 72 75 79 80 80 80 82 83 86 85 86 87 87 89 92 93 95 93 92 96 100 104 109 114 115 115 114 114 114 114 114 115 118
62 62 62 63 64 65 65 66 68 70 72 75 74 74 77 80 83 83 85 86 89 92 89 91 93 93 94 96 98 101 104 107 111 115 116 114 115 115 115 115 116 117 117 118
62 62 66 67 66 65 67 70 73 75 76 77 79 79 79 82 83 85 86 88 89 92 95 94 96 97 99 103 107 109 112 116 117 118 116 117 115 115 118 118 116 116 118 122
65 68 70 66 65 65 68 70 73 74 75 76 77 78 80 86 89 92 94 95 96 95 97 100 103 106 108 112 115 117 118 119 116 115 116 116 117 119 119 116 117 120 122 123
68 69 69 69 71 74 75 77 78 80 81 81 82 85 87 88 90 93 95 96 99 101 103 105 107 108 112 113 113 114 114 115 115 115 115 117 117 116 116 117 119 121 125 125
69 70 72 72 74 77 80 82 83 84 85 88 91 93 94 95 97 99 102 104 106 108 110 112 113 111 111 112 113 113 114 115 116 115 113 112 113 116 117 118 121 121 118 116
71 73 74 76 79 82 85 88 90 91 92 94 96 97 99 101 103 105 106 108 110 111 110 111 111 112 114 114 114 114 111 110 109 109 111 114 115 116 116 115 113 112 109 105
70 74 78 80 82 85 86 89 93 95 97 99 101 101 102 104 105 106 106 105 107 109 110 110 110 110 109 108 107 108 107 107 109 111 111 111 111 109 108 106 102 100 97 95
72 76 80 82 84 86 87 90 92 95 97 98 99 100 102 103 103 105 106 106 105 104 104 104 103 103 104 104 105 106 107 107 107 107 106 105 104 102 99 96 94 91 89 87
66 70 74 77 80 82 85 88 91 93 95 96 98 99 99 99 98 99 100 100 98 97 97 98 99 101 103 105 106 105 104 103 102 100 99 96 94 92 90 88 87 84 80 79

GFSNGP_250_spd_054.txt.gz
Wind_Speed
68 67 69 66 56 53 48 44 40 31 35 38 30 29 33 35 31 32 34 28 28 27 20 16 11 13 20 31 33 38 44 46 48 51 52 50 53 59 66 70 71 74 74 71
72 73 71 68 65 56 54 53 37 36 32 39 35 28 32 32 26 30 33 25 26 30 29 28 22 15 16 16 20 31 32 31 35 34 36 34 46 54 61 65 67 69 69 70
74 75 78 76 62 59 56 50 42 38 39 41 40 33 35 39 42 34 32 37 33 31 29 30 27 26 21 19 17 21 23 27 30 35 43 53 58 53 46 49 46 44 44 40
79 82 87 69 68 62 59 55 50 45 43 45 46 44 37 43 45 43 41 42 39 36 33 32 30 31 31 29 26 24 25 29 32 34 37 39 40 41 39 37 40 41 42 42
85 86 84 80 72 68 65 61 58 48 48 50 52 50 37 45 47 46 42 42 42 39 39 34 34 33 36 37 36 35 35 31 33 37 40 40 38 40 39 41 41 43 47 50
96 95 92 78 81 76 73 65 63 61 58 57 60 52 42 47 49 47 39 41 41 42 45 41 36 39 38 40 43 43 44 43 42 44 44 45 47 49 50 51 52 53 55 59
104 105 99 92 89 85 83 65 71 68 64 58 62 56 51 44 48 47 45 45 47 50 51 43 44 44 44 46 47 47 47 47 49 51 51 54 54 55 57 58 61 61 64 67
106 111 105 99 97 93 84 77 77 76 72 67 65 58 54 51 46 50 50 48 47 50 47 50 54 56 52 51 51 52 52 53 56 58 59 59 60 62 64 66 67 66 71 71
98 103 106 104 102 99 93 88 82 76 73 67 65 64 64 60 58 56 55 52 49 53 55 58 61 60 53 54 55 57 59 61 65 68 67 63 65 67 69 70 71 72 73 78
95 100 104 101 97 90 90 90 88 83 77 71 67 67 69 65 63 60 57 60 54 58 57 58 60 63 63 61 62 63 66 68 72 74 74 74 72 73 75 76 76 77 81 84
96 98 99 98 92 79 81 83 81 81 80 77 70 72 76 73 68 68 64 63 64 66 68 68 64 63 65 66 68 70 73 73 77 78 78 80 78 77 79 78 79 84 88 88
87 92 84 86 80 75 75 79 79 79 76 74 74 78 80 79 78 74 71 70 71 72 73 73 75 77 73 75 73 77 77 77 79 80 82 83 83 82 82 83 88 92 92 89
80 77 70 74 70 72 73 74 76 75 76 76 81 81 79 81 80 78 76 75 72 73 76 77 76 76 74 76 80 80 81 81 84 84 86 86 84 86 84 88 93 93 92 96
70 72 61 61 64 65 67 69 73 76 75 76 81 82 79 77 77 76 80 79 78 77 77 76 77 79 80 78 81 83 85 86 87 86 88 87 85 85 90 94 95 93 98 101
59 59 60 59 58 61 66 71 73 72 73 76 76 73 71 72 77 76 79 82 80 78 77 78 80 80 80 82 85 85 88 90 89 89 91 91 91 95 94 96 96 101 105 108
52 52 59 60 61 64 66 67 70 71 73 75 74 72 71 74 76 73 74 76 76 75 77 77 80 83 84 84 87 89 88 92 86 89 93 92 97 97 95 100 105 109 112 114
53 58 62 65 65 65 64 67 68 69 71 72 72 72 73 72 71 72 74 75 74 76 77 80 80 83 85 86 89 90 92 95 95 93 96 100 97 94 100 106 111 115 118 122
53 61 63 63 65 63 64 66 68 70 73 74 75 75 75 76 74 73 76 77 78 80 82 84 87 91 92 92 92 93 96 96 96 97 98 100 101 105 109 113 115 120 124 121
57 62 64 64 64 64 64 65 66 68 70 72 72 73 72 73 74 75 76 77 81 84 85 87 88 89 92 94 94 94 95 96 101 104 107 107 110 113 116 120 125 125 123 123
58 59 59 61 63 64 63 64 65 67 68 69 69 71 73 74 75 77 79 81 83 85 87 88 90 93 94 94 95 98 101 105 107 108 110 113 114 118 122 124 121 122 120 115
54 56 57 59 61 62 63 64 65 67 68 70 72 73 75 78 80 82 84 86 88 90 92 93 95 96 98 99 99 100 105 109 110 111 115 118 121 119 119 119 118 115 112 112
53 55 56 58 61 62 64 67 68 69 71 73 75 78 80 82 84 86 88 90 92 94 95 96 98 101 102 104 106 108 109 112 116 119 121 120 119 118 114 111 111 111 112 113
50 54 58 61 63 65 67 69 69 72 74 77 81 84 85 85 87 90 93 95 97 98 100 103 104 106 108 109 112 113 116 116 116 117 117 114 112 112 111 110 111 111 109 107
50 53 56 60 64 67 70 72 74 78 80 83 86 87 89 92 94 96 97 99 101 103 104 105 108 110 112 113 115 117 117 115 113 113 112 111 109 108 108 109 106 104 104 104
49 53 57 60 64 68 72 74 77 80 82 85 88 89 91 93 95 96 98 100 102 104 106 108 109 111 111 111 111 110 108 109 108 107 106 107 107 105 102 101 100 98 96 93
48 52 55 59 63 66 68 72 76 79 82 86 88 89 92 94 97 99 100 100 101 102 103 104 106 106 104 103 103 103 103 103 105 105 104 101 99 98 97 94 91 89 87 86
54 58 60 63 66 70 73 75 77 80 83 85 86 88 90 91 93 94 95 96 97 98 98 98 99 100 100 100 101 102 102 100 98 96 95 94 91 89 86 84 83 81 80 78

GFSNGP_250_spd_057.txt.gz
Wind_Speed
67 73 71 67 62 58 53 50 48 44 43 46 41 37 32 29 28 29 30 30 27 27 32 34 27 26 24 21 19 17 20 28 32 37 43 45 52 53 54 57 57 60 64 68
67 68 69 73 65 61 57 56 54 52 47 50 47 42 36 27 32 29 31 29 32 26 36 35 33 27 19 21 21 23 23 23 23 27 34 39 42 46 48 51 54 58 60 61
66 73 70 62 60 68 62 57 55 50 51 57 53 48 35 31 34 31 33 37 38 41 38 41 36 35 31 22 19 20 21 23 25 29 33 35 37 41 43 45 49 52 52 57
76 78 76 60 67 70 68 64 62 57 55 60 58 52 42 38 35 37 35 41 42 42 44 40 40 36 33 35 29 28 26 27 29 29 30 31 35 38 40 42 45 51 51 52
78 79 75 70 66 75 76 69 68 63 60 58 61 55 52 48 45 41 38 43 45 47 42 38 40 39 39 41 38 37 32 32 35 38 38 37 39 42 43 45 49 52 55 57
95 88 81 69 73 75 79 70 71 70 70 66 60 59 59 58 50 48 46 41 45 45 41 42 44 46 44 44 44 43 40 42 44 45 45 47 47 48 49 52 57 60 61 62
98 96 93 87 86 84 84 65 76 78 78 73 68 62 66 63 55 54 53 52 45 48 45 45 46 48 48 50 47 47 50 54 49 49 51 52 54 55 56 60 63 67 65 66
98 102 96 92 96 96 93 85 84 84 82 76 73 71 69 65 66 58 59 59 57 53 54 55 54 51 53 53 53 54 56 60 59 57 56 56 59 62 62 66 68 68 71 72
87 87 86 88 93 95 99 98 96 93 91 84 80 76 76 71 66 65 58 61 59 59 61 60 55 53 54 60 60 61 60 62 62 61 66 65 67 66 68 70 73 74 75 78
82 76 79 88 87 89 99 104 103 98 97 94 88 83 78 77 74 71 64 64 66 65 66 68 68 64 63 66 72 68 68 68 70 69 71 69 69 70 73 76 77 79 80 80
72 76 81 83 85 92 98 98 102 107 103 97 94 91 90 89 87 81 76 71 69 71 72 73 74 73 71 70 74 74 73 74 72 75 74 74 72 73 78 80 82 84 83 84
71 73 77 83 88 92 93 93 92 90 89 87 84 81 80 78 77 75 75 73 72 73 77 80 78 78 78 78 77 76 77 75 78 78 78 78 79 81 81 84 86 87 89 90
67 71 75 76 86 90 91 94 91 88 84 82 78 74 71 71 70 72 73 74 80 78 81 82 80 80 79 78 80 80 78 82 81 82 84 86 85 85 86 88 91 92 94 93
67 65 72 73 87 85 89 89 91 88 79 77 74 71 72 73 73 73 74 75 79 83 83 81 79 78 78 80 82 84 86 84 86 90 88 90 87 87 90 93 95 97 95 96
59 57 68 72 86 80 81 84 87 81 77 76 74 67 64 70 74 74 78 78 79 80 81 81 79 80 81 83 83 83 86 87 88 91 90 91 91 92 94 97 100 99 98 102
56 58 60 66 77 77 76 77 76 74 73 74 71 71 72 72 76 77 79 81 82 83 82 83 82 82 82 81 82 84 85 85 87 91 90 89 91 95 98 96 98 101 102 101
53 52 51 56 63 66 69 69 69 68 73 74 70 71 71 72 79 82 83 82 83 83 83 80 80 84 85 83 82 84 82 82 84 86 88 90 93 94 97 101 103 102 102 105
52 50 48 51 56 59 64 66 65 60 64 70 72 71 69 69 75 81 83 83 84 85 86 85 84 83 83 84 85 85 85 86 87 90 92 94 95 97 100 102 102 105 111 113
49 50 49 49 54 53 59 61 63 65 68 69 71 72 72 74 78 82 85 86 85 84 83 84 86 86 87 88 89 89 89 90 91 92 94 96 99 102 103 106 110 111 114 118
49 51 51 52 54 58 61 65 67 70 70 70 72 75 76 77 79 82 84 85 85 87 88 89 89 89 89 89 90 91 93 94 96 98 100 102 106 108 109 112 115 117 118 121
46 49 52 54 53 55 60 65 66 70 70 71 74 76 78 80 81 82 85 86 87 87 88 88 88 90 90 92 94 95 97 99 101 103 104 106 108 110 112 114 117 121 122 122
42 44 49 52 52 51 54 59 62 64 66 69 72 75 78 80 80 81 83 84 85 86 88 89 91 92 93 95 96 98 100 102 104 105 106 107 110 113 114 117 119 120 121 121
43 42 42 48 52 54 55 56 60 63 66 69 72 75 77 79 80 82 84 84 86 88 90 91 93 93 95 98 100 103 104 104 105 107 109 111 113 115 116 117 117 116 114 112
39 40 42 43 47 50 53 57 60 62 65 68 70 72 76 79 81 82 83 85 87 88 90 91 93 95 98 99 101 103 105 108 109 110 111 112 113 112 112 112 110 108 108 107
37 40 42 46 49 52 55 57 61 64 67 68 71 72 74 78 80 82 84 86 87 89 91 93 96 98 100 101 103 105 105 106 107 108 108 107 107 107 106 105 104 102 99 97
41 45 48 50 53 55 58 60 62 64 67 69 72 74 76 78 81 83 84 86 88 90 91 93 95 97 98 98 100 102 103 103 103 103 103 103 103 101 99 98 96 95 92 88
47 51 53 56 58 60 62 63 65 67 69 71 72 74 75 77 79 81 83 85 87 89 91 92 93 95 95 95 95 96 97 97 98 98 98 96 95 94 91 89 86 85 83 81

GFSNGP_250_spd_060.txt.gz
Wind_Speed
67 67 63 54 57 59 51 53 50 49 48 50 49 44 42 40 35 31 33 36 31 26 26 27 30 29 35 34 28 25 22 19 19 19 20 25 29 30 33 36 41 44 46 49
69 64 60 56 61 60 57 56 51 53 51 48 49 48 47 44 41 36 36 39 38 33 32 28 32 29 28 35 32 30 28 25 24 25 24 25 27 29 32 30 34 38 39 42
75 72 70 71 71 70 63 62 59 57 57 56 53 55 53 50 47 45 38 43 43 37 36 36 36 28 27 30 32 33 33 33 31 26 26 29 30 31 32 30 32 36 36 39
79 77 75 78 76 73 64 64 64 62 61 60 58 60 58 52 50 54 48 47 47 43 43 42 42 39 37 37 35 35 31 34 36 35 30 30 33 37 38 40 42 44 45 47
71 77 71 68 73 64 63 61 65 62 60 63 65 64 55 55 51 56 59 52 49 45 46 46 45 43 44 42 37 41 43 40 39 41 40 40 36 37 40 45 49 51 51 53
66 67 60 62 66 66 68 59 68 64 64 63 66 62 62 63 60 58 61 59 56 52 47 47 50 52 47 46 48 48 48 49 48 49 50 51 51 48 50 50 50 50 53 55
84 89 81 74 72 74 75 73 77 73 70 68 66 67 66 69 66 63 60 63 64 61 57 56 54 54 56 56 55 54 53 55 54 56 53 51 55 58 59 58 59 59 61 62
91 90 85 88 89 90 88 81 77 76 73 71 68 66 69 73 70 69 67 65 62 64 67 62 60 61 65 64 62 60 60 61 56 57 57 59 63 65 62 64 67 67 68 68
90 90 90 93 95 97 99 98 94 88 87 79 77 75 71 69 70 73 76 76 73 69 69 66 67 67 69 72 70 67 68 67 62 63 65 68 70 73 73 74 75 72 72 74
80 82 82 84 87 95 99 104 106 97 94 97 94 91 85 81 78 76 81 80 76 71 75 71 72 73 70 72 72 73 74 77 78 78 78 79 79 75 75 78 80 79 79 81
77 78 78 80 78 80 84 87 94 98 103 104 98 97 93 93 91 89 88 86 84 83 81 77 78 74 77 77 76 78 79 79 76 76 76 76 79 82 83 83 86 84 86 86
74 74 76 80 77 78 81 80 82 85 89 96 103 101 102 100 99 96 94 93 92 90 87 86 86 86 82 84 81 79 84 86 83 85 85 87 89 90 90 89 90 88 92 89
70 72 71 73 75 75 76 78 83 81 81 88 95 99 93 87 89 91 94 95 96 94 94 91 82 80 82 84 84 82 88 91 91 90 91 89 88 88 91 93 94 94 94 94
67 67 66 65 71 73 74 74 78 82 82 90 90 94 91 84 74 78 80 80 86 82 75 71 74 79 81 83 83 84 88 90 92 94 92 90 89 91 93 94 96 97 96 96
58 60 63 62 65 67 67 72 75 78 83 88 89 92 85 81 78 73 73 73 72 72 73 75 80 81 79 80 80 82 86 87 90 90 90 91 90 90 91 92 96 100 101 99
52 54 57 59 60 63 64 67 71 77 83 84 86 83 77 77 80 82 82 79 76 73 74 78 83 83 81 81 83 86 88 89 92 93 92 91 93 92 91 96 96 98 98 99
54 56 57 59 56 57 61 61 68 72 79 80 77 78 77 79 75 69 73 76 74 75 80 84 83 83 85 87 90 91 93 92 96 96 97 97 94 98 100 99 98 98 98 99
54 54 57 56 52 52 55 58 61 63 71 72 65 63 66 72 72 73 77 80 79 84 88 87 87 88 90 91 91 93 94 97 98 99 98 100 102 101 100 101 102 102 103 104
51 52 53 52 51 50 51 53 57 60 64 68 65 58 63 69 74 76 76 78 79 80 84 85 89 93 95 95 96 97 97 99 101 102 104 102 102 104 105 105 105 106 106 107
45 49 51 52 52 53 56 56 58 59 61 64 65 65 65 67 71 77 78 79 81 82 84 85 89 92 96 97 97 97 99 102 105 105 105 105 106 108 108 107 107 109 110 110
43 46 50 51 53 55 56 57 60 62 63 64 64 65 69 70 70 73 77 80 81 84 86 87 89 93 96 98 99 101 103 105 106 107 108 109 109 108 108 108 108 109 111 113
41 46 49 50 51 52 54 56 58 60 61 62 62 64 66 70 73 76 79 81 83 87 89 90 92 94 96 98 99 101 104 105 105 106 107 107 106 107 107 107 109 111 111 111
39 42 44 44 46 48 51 54 56 59 60 58 59 62 64 66 70 72 74 77 80 83 84 87 89 90 91 94 97 99 101 102 101 102 103 104 106 106 107 109 109 110 110 110
38 40 41 42 42 43 45 47 50 52 53 53 54 57 61 64 66 69 72 74 78 80 83 87 89 89 89 90 92 95 97 98 99 101 102 102 104 105 106 108 108 108 108 107
33 36 39 41 43 45 47 48 50 53 54 55 57 59 60 62 65 68 71 74 77 79 81 83 85 86 87 88 89 91 93 94 97 99 100 101 103 104 105 104 104 104 103 102
37 40 42 44 46 49 51 53 55 57 58 60 62 63 65 67 68 70 72 75 77 79 81 83 85 85 86 87 89 91 94 96 97 97 98 98 99 101 101 99 98 96 93 90
44 47 49 51 53 55 57 59 60 62 63 64 65 66 67 68 70 71 73 74 76 77 78 79 81 82 84 85 87 90 91 92 93 94 95 94 94 93 91 89 87 86 86 85

GFSNGP_250_spd_066.txt.gz
Wind_Speed
61 59 62 63 62 62 60 59 57 56 54 54 54 53 51 49 46 43 42 40 41 39 37 38 35 30 25 27 29 26 25 23 21 21 18 18 18 18 18 19 19 21 24 27
62 63 62 65 66 69 65 59 56 58 57 55 52 52 53 52 50 46 45 44 44 44 44 42 45 42 34 31 32 33 33 31 30 29 29 27 26 27 27 23 25 26 26 29
67 67 64 64 67 67 69 65 60 61 58 58 56 56 56 50 50 49 48 48 46 46 49 50 49 47 46 40 34 37 39 38 36 36 38 35 34 33 36 36 36 34 35 37
73 72 71 69 70 70 68 66 64 61 59 57 57 60 60 56 52 57 55 50 49 50 49 50 53 51 47 45 44 45 45 44 42 41 39 43 43 42 40 43 44 41 46 46
69 68 74 76 74 72 72 73 72 66 62 59 64 67 64 57 55 58 57 58 58 56 52 54 54 56 55 52 51 51 50 51 49 45 44 43 46 49 48 51 52 53 53 55
77 74 72 75 74 74 76 75 70 69 69 69 70 69 66 62 58 63 62 59 59 58 56 56 59 62 61 58 57 56 57 56 54 55 52 50 52 54 57 59 59 57 57 57
84 83 79 79 79 78 79 77 76 77 77 77 78 79 78 68 68 69 71 69 66 65 63 65 65 66 67 64 62 58 59 60 57 58 58 58 61 63 64 67 65 65 64 65
90 86 84 84 83 84 85 85 84 77 76 76 77 74 73 74 74 78 78 79 77 76 74 75 71 70 69 65 66 66 66 64 65 65 65 63 64 67 68 67 72 71 70 71
85 86 83 86 88 85 84 84 85 88 87 86 88 87 86 84 84 85 82 84 84 82 80 78 72 72 73 70 68 68 68 68 69 70 68 68 71 74 74 73 73 76 76 76
87 83 82 80 83 85 87 84 84 83 85 86 88 90 92 92 91 93 92 87 83 79 80 77 73 72 74 72 72 74 73 73 73 72 71 71 72 74 75 79 81 81 82 84
82 87 88 90 89 90 89 87 89 90 91 93 94 93 89 84 85 84 79 73 72 76 75 77 79 79 79 79 78 77 78 79 78 78 77 77 79 81 83 85 86 87 89 92
80 82 84 82 84 87 89 91 92 94 95 96 91 87 85 85 84 84 84 83 82 81 83 85 87 88 87 88 86 84 83 83 84 86 87 87 89 91 92 94 94 98 99 98
80 84 87 86 85 87 92 93 94 96 97 97 97 96 96 95 93 94 97 94 94 94 94 96 99 97 98 98 95 94 92 93 93 94 96 98 98 96 100 102 104 105 106 106
79 81 79 80 80 81 83 86 90 92 94 95 96 94 94 93 95 98 102 102 102 106 104 104 105 104 104 110 107 103 103 104 106 107 105 105 106 105 107 108 109 111 110 110
75 76 75 76 78 78 79 80 81 83 86 88 89 88 87 83 87 90 91 92 90 90 92 93 96 99 102 108 109 107 101 96 99 99 100 98 103 106 107 109 108 113 109 106
72 73 75 75 76 77 78 79 79 80 80 79 77 75 77 77 79 82 84 87 82 81 87 90 90 87 88 94 96 92 93 87 97 102 104 97 98 101 99 98 105 106 106 106
65 68 70 72 74 74 74 75 73 72 70 67 66 66 68 70 72 78 84 75 73 73 77 81 81 84 83 85 87 87 93 96 101 102 99 101 97 97 96 98 104 108 106 105
62 63 63 63 64 62 63 62 59 57 56 57 57 59 60 64 64 68 71 64 62 66 72 75 77 79 80 80 81 83 85 88 91 90 90 92 90 91 94 96 97 103 108 110
62 64 64 61 60 60 59 57 57 56 56 57 57 58 59 61 61 60 60 58 62 65 69 73 74 76 78 77 80 82 84 86 90 91 91 95 97 99 100 101 104 105 109 112
47 48 47 47 47 46 46 46 47 49 51 53 55 58 60 62 62 60 61 62 64 63 64 67 69 71 73 74 75 80 83 86 88 91 92 96 99 102 104 107 109 111 113 115
34 37 41 42 42 41 41 41 42 44 47 49 51 55 58 59 59 60 60 59 58 59 59 60 62 64 65 67 68 70 73 78 82 86 90 95 98 99 102 105 107 109 112 114
31 32 32 33 35 37 37 38 39 41 42 44 45 47 49 51 53 54 55 57 59 61 63 64 65 66 68 69 71 73 74 75 77 81 84 87 90 92 95 97 98 98 98 99
30 32 33 35 36 37 38 39 40 41 42 43 45 47 49 52 54 56 58 61 63 64 65 66 67 69 69 70 70 72 75 77 79 81 83 84 85 87 88 89 90 90 90 91
32 35 37 38 39 41 42 43 44 45 46 48 49 51 53 54 56 58 60 61 63 63 64 65 65 66 67 69 70 70 71 72 73 75 77 79 81 82 84 85 86 87 89 90
34 36 38 39 40 42 43 45 47 48 49 50 52 53 54 55 55 56 57 58 59 60 61 63 64 66 67 68 70 71 72 74 75 77 79 80 82 83 85 86 87 88 88 88
39 41 42 44 45 47 48 50 51 52 54 55 55 56 57 58 59 60 62 63 64 66 67 68 69 70 71 72 73 74 75 76 77 77 78 79 79 80 80 81 81 82 82 81
41 43 45 47 50 52 53 55 56 57 58 59 60 61 62 62 62 63 64 65 66 67 67 67 68 68 69 70 70 71 71 72 72 73 73 73 73 73 73 73 73 74 74 74

GFSNGP_250_spd_069.txt.gz
Wind_Speed
64 60 55 55 57 56 57 57 58 58 58 58 55 52 48 46 45 46 46 43 41 42 39 36 34 34 31 32 33 32 30 30 30 25 24 25 23 21 21 20 19 19 20 22
64 61 63 63 59 56 59 59 59 62 59 59 54 52 51 48 47 47 46 47 47 45 42 41 40 39 37 38 39 34 37 36 31 33 33 29 30 34 31 29 28 28 27 25
69 63 67 63 66 64 61 59 63 66 67 63 63 59 55 55 55 56 54 50 50 47 43 45 45 44 45 45 44 41 39 40 42 39 38 37 34 36 39 39 37 37 40 41
73 71 66 62 64 64 64 66 66 66 67 69 66 61 58 57 57 58 58 54 54 51 45 46 50 50 49 44 43 46 46 45 40 42 42 45 43 43 43 43 43 43 43 47
75 77 75 71 64 68 66 66 68 69 70 70 71 70 65 60 59 59 61 59 58 56 57 55 53 55 57 55 54 48 50 52 51 49 48 49 49 48 46 47 51 50 50 51
74 76 77 78 75 72 71 71 70 68 70 74 73 75 71 68 69 62 60 63 62 60 54 54 57 60 62 62 61 58 52 52 57 58 57 57 56 54 54 54 52 54 56 57
77 76 78 77 80 80 76 76 72 71 70 72 74 75 74 71 68 69 65 63 63 62 60 59 61 60 62 63 65 65 62 62 61 63 64 65 66 66 65 63 65 64 65 66
81 78 77 77 78 83 82 81 77 79 78 78 77 76 76 79 78 76 76 75 75 71 69 66 70 72 69 68 70 70 72 70 68 70 71 71 65 64 65 65 64 67 68 71
87 84 81 78 79 85 82 77 77 76 76 79 82 81 81 81 81 79 78 80 81 83 82 78 79 82 82 82 82 81 81 80 82 80 79 77 74 71 70 69 70 70 73 74
87 89 87 83 84 86 88 87 87 85 83 82 85 85 86 84 82 82 83 84 85 84 84 81 83 86 88 88 87 87 87 87 84 81 79 80 80 78 76 76 77 75 77 76
92 88 87 92 91 91 93 96 97 94 94 93 94 93 94 92 91 93 94 95 94 93 93 93 93 92 93 96 96 96 95 91 84 82 81 81 81 81 80 79 79 81 82 84
92 95 95 91 94 97 95 94 97 98 99 100 100 96 98 98 95 91 92 95 95 96 98 100 100 102 104 106 104 99 91 86 82 82 84 84 85 85 85 86 88 89 92 93
85 87 89 91 95 94 93 95 95 95 95 99 103 98 96 95 98 102 98 99 99 100 101 102 100 100 97 93 91 89 87 87 88 90 93 92 94 96 98 98 98 99 100 103
90 92 92 93 95 96 95 95 96 97 100 101 101 103 104 104 104 103 102 100 100 100 102 103 103 100 96 96 95 95 96 97 99 102 107 101 104 106 107 105 106 108 110 113
90 91 91 92 94 97 97 98 98 97 97 99 99 100 102 102 101 101 101 101 98 95 96 100 103 104 102 102 103 104 104 104 104 111 114 115 117 114 110 107 107 108 111 112
76 77 79 81 82 83 85 87 89 91 93 94 95 96 96 96 96 94 93 91 90 91 92 95 98 99 94 89 91 93 95 98 100 104 107 112 112 113 108 102 97 96 90 94
71 72 75 76 79 82 84 85 87 87 89 91 91 90 89 89 89 88 86 84 83 84 88 92 95 93 88 82 83 84 87 89 92 94 96 97 100 103 105 104 98 93 93 99
70 73 76 78 80 80 80 80 81 81 81 82 80 78 78 80 78 77 73 73 75 80 80 85 88 83 79 78 75 77 82 84 86 89 92 94 97 103 104 99 99 105 107 109
68 71 72 73 74 73 72 71 70 69 68 68 67 67 67 68 66 65 67 68 71 76 77 77 79 73 68 67 70 74 79 80 80 82 85 88 91 94 96 96 99 105 109 111
61 60 60 60 60 61 62 63 62 60 59 59 57 57 59 61 64 65 67 69 71 74 72 71 72 70 67 66 69 71 73 76 77 78 80 82 84 87 90 92 95 98 102 106
60 60 61 61 60 60 59 58 57 54 53 53 53 54 55 56 57 58 60 63 66 68 69 69 69 68 68 68 66 66 68 68 71 74 76 79 82 85 87 89 92 94 96 98
49 50 50 51 51 52 52 51 50 49 49 49 50 51 51 52 53 54 55 56 59 61 63 64 65 66 67 68 69 70 72 73 75 76 78 81 84 86 88 90 92 95 97 99
43 43 44 45 46 46 46 47 47 48 48 49 49 49 51 52 53 54 55 56 59 60 62 63 65 66 68 69 70 71 72 73 74 75 77 79 81 82 83 85 86 88 90 91
37 39 41 42 43 44 46 46 46 47 47 48 49 50 51 52 52 53 55 56 58 60 62 63 65 66 68 69 70 71 72 72 72 73 75 76 76 78 80 82 84 86 87 89
37 39 40 42 43 44 46 47 48 49 50 51 52 52 53 53 53 54 55 56 58 59 61 63 64 65 66 68 69 70 72 73 74 76 77 78 78 80 80 81 82 84 84 85
41 44 46 47 49 51 52 53 54 55 56 57 57 58 59 59 60 60 61 61 62 63 64 65 66 67 68 68 69 70 71 72 73 74 74 76 77 78 79 80 80 80 80 80
48 51 53 55 56 57 58 59 59 60 60 60 59 59 59 59 60 60 60 61 62 63 64 65 66 66 67 68 69 70 70 71 71 72 72 72 72 73 72 72 72 73 73 73

GFSNGP_250_spd_072.txt.gz
Wind_Speed
63 62 63 57 58 60 59 53 54 55 55 51 57 60 55 52 47 49 48 45 44 40 38 37 37 37 35 32 34 30 29 30 29 27 27 26 26 24 22 22 22 23 26 25
63 60 68 70 66 63 57 57 53 56 58 62 56 53 54 53 52 49 49 48 44 45 48 46 42 42 41 38 38 36 38 40 39 36 36 36 33 29 30 33 34 33 33 33
69 71 67 62 60 57 55 53 52 57 56 59 60 59 54 56 55 53 50 47 45 46 47 47 47 45 45 42 43 43 43 42 44 44 46 41 39 41 39 39 40 40 40 39
72 69 68 67 62 58 55 49 53 55 59 59 60 61 58 57 54 52 51 49 49 50 52 50 49 48 48 49 49 47 48 49 47 47 45 47 46 43 42 42 44 44 43 43
64 68 61 65 68 64 58 55 62 64 62 60 59 61 55 58 59 60 60 58 57 56 57 56 54 54 51 53 53 54 52 53 53 53 54 55 50 53 54 52 50 52 56 53
80 70 73 71 56 58 59 60 70 75 63 61 60 57 53 60 62 63 62 59 58 59 60 60 61 59 57 57 57 61 63 62 61 61 59 59 59 60 58 54 55 57 62 63
86 76 70 72 70 68 65 72 69 67 62 65 64 62 60 60 62 63 66 66 71 67 68 69 65 62 60 63 65 65 64 62 61 61 61 62 64 63 65 66 65 64 66 67
83 88 76 76 77 70 74 74 70 65 68 63 66 69 67 68 64 67 68 71 74 71 72 70 65 64 64 65 66 67 68 66 69 71 69 69 71 69 70 70 70 73 74 75
88 85 82 87 84 84 80 81 76 74 73 72 71 71 72 71 71 72 72 75 76 77 77 77 78 77 78 79 80 81 80 76 74 77 79 78 78 76 79 78 78 79 82 85
88 91 87 84 84 78 78 83 84 80 79 82 81 83 83 78 82 81 81 82 83 83 84 82 83 85 84 85 84 84 81 82 83 84 87 88 87 88 90 90 91 90 89 82
85 83 91 88 88 82 80 79 81 83 85 85 88 89 90 90 89 90 85 84 82 84 85 86 86 87 86 84 83 85 89 90 91 91 92 93 93 95 97 99 101 98 89 88
85 89 91 89 90 85 84 84 83 83 84 88 89 90 91 93 93 95 95 95 93 94 92 92 93 93 95 98 101 100 102 102 103 104 106 106 107 107 103 98 94 92 91 87
85 87 85 85 88 87 86 89 90 91 90 91 90 91 93 96 96 97 98 101 103 105 106 104 105 106 105 108 106 104 103 99 103 103 105 109 108 105 100 90 86 105 95 95
88 87 87 88 88 89 90 91 93 93 95 97 100 102 103 103 105 106 108 106 107 108 108 111 109 105 107 108 106 106 107 111 107 105 106 107 107 104 105 104 101 103 104 106
89 88 89 91 91 92 93 94 96 99 100 101 103 105 106 107 109 112 112 110 108 109 110 111 111 111 109 108 111 111 109 109 108 107 106 106 105 102 106 106 111 108 111 112
79 82 85 89 92 97 98 98 100 101 103 105 104 106 108 109 110 111 109 108 108 108 106 106 104 102 100 99 101 101 104 104 102 99 97 98 98 97 99 106 113 112 118 122
80 81 82 83 86 89 92 94 97 99 101 103 105 106 107 106 107 107 106 104 102 101 99 99 98 95 93 93 95 98 100 99 97 96 93 92 91 92 93 94 101 103 107 111
78 79 80 82 85 89 91 91 92 93 94 96 97 98 99 99 99 98 98 97 97 97 97 96 93 91 91 91 92 95 97 99 95 92 88 84 85 86 87 92 96 97 99 102
67 71 74 77 80 81 83 86 88 88 90 90 91 90 91 91 92 90 89 88 88 87 88 88 86 85 84 84 86 88 90 89 83 81 78 74 74 77 80 86 89 92 94 95
67 70 73 74 76 78 79 81 83 83 83 83 82 82 81 79 78 77 78 78 80 81 82 82 81 81 82 82 83 85 85 82 77 75 72 72 74 76 78 81 83 84 87 90
63 65 67 69 70 71 72 73 73 73 72 72 72 72 72 72 71 69 68 68 69 70 70 70 71 71 72 73 74 76 78 78 76 74 72 72 74 76 78 81 84 86 88 89
55 56 57 59 61 63 64 65 66 67 68 67 66 66 65 65 65 66 67 66 65 65 65 66 66 67 68 70 72 73 74 74 75 75 76 78 79 79 80 82 83 85 86 88
56 57 58 58 58 57 57 58 59 59 61 62 63 63 63 64 64 64 64 64 64 64 64 64 64 65 66 67 68 69 70 72 73 74 76 77 78 79 80 81 83 85 86 87
39 42 44 46 47 49 51 53 55 57 57 58 59 60 61 61 62 62 62 63 63 63 64 64 65 66 66 67 68 69 70 71 73 74 75 76 77 78 79 78 78 78 80 81
39 41 44 47 50 52 54 56 58 59 60 61 62 63 63 64 63 63 62 62 62 62 61 62 62 63 64 64 65 66 68 68 70 71 72 74 74 75 76 77 78 79 81 82
45 48 50 53 55 57 59 60 61 62 62 62 63 63 63 63 62 62 62 62 62 62 61 62 63 63 64 65 66 67 68 70 71 72 72 73 74 74 75 75 75 75 75 75
51 54 56 58 59 60 61 61 61 61 59 59 59 59 59 59 59 59 59 59 59 60 60 61 62 63 64 65 66 66 67 68 68 69 69 70 70 70 70 71 71 71 71 71

GFSNGP_250_spd_075.txt.gz
Wind_Speed
69 70 74 66 62 61 51 46 46 44 48 47 48 48 47 44 46 46 45 42 41 38 37 34 35 37 36 34 32 31 31 32 32 30 27 29 29 29 30 31 30 28 26 26
74 70 72 73 67 64 56 54 50 48 50 50 51 46 50 46 44 49 52 47 45 42 39 39 41 40 42 40 39 38 39 39 37 38 39 40 40 40 39 38 39 40 41 39
77 75 72 68 73 63 61 58 53 55 51 51 57 59 55 42 43 46 46 47 48 49 45 43 45 46 46 46 44 42 40 37 38 41 42 42 43 44 45 46 46 46 46 48
76 77 66 67 73 64 65 62 58 59 54 55 57 56 52 52 51 51 50 45 47 50 51 51 50 51 50 50 51 51 50 46 42 43 45 46 47 48 48 48 49 48 50 50
76 67 62 69 71 67 62 58 58 65 62 62 59 56 54 54 54 49 46 49 50 52 53 54 57 57 55 55 54 53 51 49 47 48 48 50 54 55 55 56 55 55 56 54
80 74 67 68 71 72 68 64 59 62 65 67 64 61 57 55 53 51 46 50 53 56 55 54 56 58 58 54 54 54 54 54 53 54 54 55 58 62 63 60 61 60 59 58
87 78 70 61 67 69 75 73 70 70 74 68 67 61 60 56 51 50 50 48 53 55 57 58 59 59 57 60 61 60 61 63 62 59 60 59 62 65 64 62 66 64 66 66
88 80 73 67 66 67 67 68 71 70 74 66 66 64 63 64 59 58 55 55 56 58 59 60 61 63 65 68 69 71 70 68 64 61 58 57 60 66 72 73 74 71 72 76
90 91 79 71 71 70 69 74 75 74 78 76 67 63 63 66 64 65 62 63 64 66 66 65 64 65 65 67 68 69 70 68 69 72 74 75 75 77 76 74 73 74 75 78
83 87 87 79 74 63 73 74 67 73 69 65 62 64 66 67 66 67 66 67 67 70 70 71 72 71 71 72 73 75 77 80 80 81 82 82 81 82 77 76 78 82 84 85
86 88 84 88 86 78 72 74 78 74 75 74 70 69 72 68 68 71 70 72 74 74 76 77 78 80 82 85 86 88 87 87 85 84 84 84 84 83 84 87 89 91 96 98
81 95 90 100 96 86 84 83 80 78 77 78 81 79 77 78 78 80 82 84 86 85 85 87 90 91 90 91 92 92 91 91 96 95 95 97 99 100 101 101 104 107 108 101
83 84 97 101 103 92 84 84 88 91 91 89 87 86 88 87 84 86 89 90 90 91 92 92 94 96 96 97 98 100 99 99 101 103 106 106 106 105 107 110 107 104 104 103
82 84 79 88 94 94 92 89 91 94 93 94 92 90 89 89 89 89 90 92 93 94 95 96 99 102 103 104 104 105 107 108 111 112 112 110 110 110 111 113 112 113 112 112
82 82 79 73 85 95 93 95 92 93 95 98 97 96 96 97 98 95 96 98 100 102 104 105 107 109 109 111 114 116 116 116 118 116 115 113 114 115 114 113 113 112 109 108
81 82 81 80 77 81 91 89 86 90 92 93 93 94 99 101 101 101 102 104 106 107 108 111 113 115 117 118 118 115 116 116 116 118 115 115 113 110 107 106 105 103 102 102
78 82 84 83 81 81 82 84 88 93 92 93 95 97 98 99 100 102 105 109 112 113 115 117 119 117 116 115 114 113 113 111 109 106 105 104 104 103 102 103 102 102 99 98
72 79 83 86 87 88 88 88 89 92 95 97 98 101 103 105 107 109 110 113 115 115 112 111 110 110 108 107 106 105 105 104 101 101 99 98 98 97 99 97 96 94 91 88
61 71 79 82 84 85 85 86 87 89 91 93 95 97 99 100 101 102 102 103 103 104 104 104 103 101 100 100 98 96 94 93 92 92 90 90 90 89 90 90 86 83 81 79
58 61 67 76 82 86 87 87 87 88 89 90 92 93 94 95 96 96 97 97 98 97 97 96 94 91 89 89 88 86 84 82 81 80 80 79 80 80 81 83 83 81 80 80
59 62 65 68 72 75 78 80 83 85 86 87 88 88 89 90 91 91 91 89 88 87 86 85 82 80 78 76 75 75 76 76 75 75 75 74 74 73 74 75 77 78 78 80
57 59 62 65 67 69 72 74 77 79 82 83 84 84 83 82 82 83 83 83 81 79 78 76 75 74 74 73 74 74 74 73 73 74 74 73 73 72 73 73 73 74 75 76
51 54 56 59 61 63 64 66 69 70 72 74 75 76 76 76 75 74 73 73 73 74 75 75 74 74 74 74 74 74 74 73 73 73 72 72 72 71 71 73 73 73 74 75
51 54 55 58 59 61 62 63 65 67 68 68 69 69 71 71 71 72 72 72 72 72 72 71 71 70 69 69 68 67 67 66 66 66 66 67 68 69 69 70 72 73 74 75
44 46 48 50 53 55 57 59 61 62 63 64 65 66 67 67 67 66 65 66 65 64 64 64 64 64 65 64 65 66 65 66 67 68 69 69 70 72 72 73 74 74 75 76
46 48 51 52 54 57 59 60 63 64 64 65 64 63 63 62 61 61 61 62 62 63 63 63 64 64 65 65 65 66 67 67 67 68 68 69 69 70 69 69 69 69 69 69
52 54 56 57 58 60 62 62 63 62 60 62 62 60 56 55 56 56 56 57 57 58 59 59 59 60 61 61 62 62 62 63 63 63 64 64 65 65 66 66 66 66 66 67

GFSNGP_250_spd_078.txt.gz
Wind_Speed
50 55 62 65 69 63 62 65 57 55 49 48 41 35 40 36 40 41 39 38 38 35 32 32 32 33 33 35 35 32 30 30 28 28 28 28 28 29 27 28 29 31 32 33
54 58 65 67 70 63 59 59 56 56 49 41 45 38 44 43 39 43 37 40 43 42 41 39 38 36 37 35 35 38 39 36 35 31 31 33 33 34 35 37 38 39 41 42
57 62 68 69 71 65 56 58 55 56 54 52 52 47 45 52 46 41 40 41 46 46 46 46 45 44 41 41 41 41 42 43 42 41 40 38 36 39 40 42 43 44 43 44
61 65 69 71 69 71 63 61 57 56 56 56 58 51 46 42 44 51 48 45 46 48 48 46 47 47 48 46 46 46 46 46 46 46 47 46 46 45 46 45 46 48 52 52
66 70 70 72 67 68 63 63 60 57 55 56 54 55 56 56 56 51 47 49 49 49 48 45 46 48 51 52 51 52 52 52 52 51 51 51 52 52 52 50 52 55 56 57
70 75 72 71 75 73 69 70 71 66 67 65 61 59 55 53 52 52 51 52 54 55 53 51 51 50 50 52 55 56 56 58 57 56 55 55 54 55 55 55 57 61 61 63
69 79 76 71 72 75 76 69 67 71 67 67 66 63 61 59 60 54 56 57 56 52 49 49 49 51 53 55 56 56 57 59 61 61 59 57 56 57 59 62 62 62 66 68
62 82 77 75 76 77 78 78 75 73 74 70 69 69 68 65 61 58 58 60 58 52 48 49 52 53 52 53 55 56 56 57 58 60 62 62 64 65 68 66 64 64 67 67
71 78 84 78 80 81 79 77 81 79 75 75 78 77 71 70 67 63 64 64 66 57 56 53 54 53 56 56 57 61 63 63 63 65 66 67 68 68 66 67 69 72 74 78
72 67 80 76 75 79 81 76 76 78 77 78 77 71 71 66 66 66 65 64 68 65 63 65 66 66 65 65 65 66 67 68 70 70 70 69 70 72 74 79 82 83 84 81
74 70 77 79 78 77 79 73 77 81 80 81 80 78 77 76 75 74 73 68 68 71 70 69 73 74 74 72 72 72 72 73 73 75 75 77 82 84 85 86 87 88 87 89
76 75 76 82 82 87 83 79 73 79 83 79 80 81 82 79 76 74 73 77 77 76 76 73 75 74 74 75 76 77 79 82 83 83 85 89 91 91 93 94 95 97 100 98
76 82 81 86 89 89 90 86 82 80 76 77 79 82 83 82 81 79 79 75 74 73 77 81 82 82 81 82 84 86 90 92 93 94 94 94 95 97 98 102 104 106 106 108
80 87 89 92 92 93 95 94 92 87 83 80 81 78 79 82 83 83 80 82 82 83 85 87 88 89 91 93 92 94 95 93 95 98 98 99 103 105 107 110 112 112 115 118
74 80 86 90 93 99 96 95 94 91 89 88 86 85 86 84 85 85 87 88 89 90 92 95 96 97 97 100 100 99 101 102 102 104 106 108 111 114 115 118 119 120 120 118
64 71 77 81 83 84 86 90 89 88 91 94 96 94 95 95 95 95 95 95 98 101 103 105 106 105 105 106 107 107 109 112 112 113 114 116 118 119 120 122 119 115 115 115
57 61 67 75 78 78 79 82 85 88 96 95 101 103 102 101 104 102 102 103 104 104 105 106 113 110 107 110 110 111 111 112 114 117 118 119 120 117 112 111 109 107 104 103
57 59 63 69 75 79 79 78 79 80 81 85 93 104 113 113 112 114 114 115 113 113 114 110 111 112 109 109 110 112 115 117 119 118 112 109 108 106 104 101 98 94 92 90
51 55 57 61 67 71 74 75 77 78 80 83 84 86 87 90 100 110 114 115 116 113 109 107 107 108 110 112 113 113 111 109 109 107 104 101 97 95 93 92 90 87 86 84
48 53 57 59 61 66 72 76 79 82 83 84 86 87 89 91 93 94 96 97 99 101 102 103 104 105 105 105 105 104 103 102 100 97 94 92 90 87 85 83 82 80 78 78
49 51 55 60 63 63 65 68 73 78 81 84 86 87 88 90 92 93 93 94 97 98 98 98 98 97 97 97 96 94 93 93 92 90 86 85 83 81 79 77 77 77 76 76
46 50 54 57 61 65 68 70 72 74 76 79 81 83 84 86 87 89 89 90 91 92 93 93 92 91 90 90 89 87 84 82 81 81 80 78 77 76 75 75 76 76 75 75
44 47 50 54 57 61 64 67 70 73 76 78 80 81 83 84 85 87 87 87 87 87 87 86 85 83 81 79 78 76 74 73 72 72 72 72 73 73 72 73 73 74 75 75
43 46 49 53 56 59 62 65 67 68 71 72 74 77 78 78 80 79 78 78 77 77 76 75 74 74 73 72 72 71 70 70 71 71 72 73 73 74 74 76 76 77 77 77
47 49 51 53 55 58 60 61 63 65 66 67 68 69 71 71 70 70 70 69 69 69 68 68 68 68 67 69 69 69 71 72 72 73 73 73 73 73 74 74 74 74 74 73
45 47 49 51 54 56 57 59 61 62 63 63 63 62 63 64 65 65 65 65 64 63 64 65 66 66 66 67 68 69 68 68 68 69 69 68 68 67 67 67 66 66 66 65
53 54 56 58 59 60 60 61 62 61 61 60 58 56 55 55 56 57 58 58 60 61 62 61 61 62 61 61 61 63 63 62 63 63 63 63 63 63 63 63 63 63 63 63

GFSNGP_250_spd_081.txt.gz
Wind_Speed
61 46 43 41 45 42 44 50 62 70 57 60 62 58 56 47 44 47 49 41 36 37 39 38 37 36 35 35 35 34 29 27 28 29 29 27 24 26 27 28 28 28 29 29
52 47 45 45 47 46 47 53 66 63 58 56 59 60 58 54 43 40 43 41 38 37 40 40 39 36 37 38 39 38 36 35 34 33 32 31 31 31 31 31 31 34 37 38
51 48 48 50 47 48 52 64 65 61 59 52 51 61 61 56 47 40 38 42 43 40 41 42 41 38 37 38 37 36 36 37 37 40 39 39 37 39 39 37 39 38 41 43
51 51 49 52 49 53 58 69 66 65 62 57 49 48 54 61 56 42 40 41 44 47 46 46 45 45 45 44 43 43 44 44 42 43 44 45 45 45 45 45 44 46 47 47
50 47 50 52 52 61 61 72 69 66 64 63 56 58 56 48 50 45 50 47 47 47 51 52 51 49 48 50 50 49 48 49 49 49 49 50 50 50 51 50 50 53 54 54
48 46 52 54 58 67 68 74 71 68 69 72 68 67 62 59 58 60 56 56 58 52 49 47 48 47 47 48 50 52 53 53 54 55 54 54 56 57 57 57 56 56 58 59
47 49 57 58 70 70 73 72 74 71 71 66 62 59 62 68 63 57 58 62 64 61 54 52 53 53 52 52 51 51 53 54 56 57 58 59 61 62 63 63 61 61 63 62
46 54 59 62 72 74 77 76 79 77 79 76 71 71 67 64 67 65 63 60 59 58 55 55 57 60 60 60 60 59 58 59 61 61 61 63 65 65 64 64 63 64 67 67
44 56 60 64 75 80 79 80 79 78 73 74 74 74 78 73 72 66 67 65 66 66 64 59 58 58 59 62 62 63 64 64 64 66 67 65 63 64 65 67 69 70 72 75
48 60 63 63 75 80 82 81 83 81 77 76 76 76 74 72 70 70 70 71 69 71 71 66 66 61 63 62 63 66 65 62 64 63 65 68 68 70 71 73 74 74 74 77
53 63 64 67 75 83 80 83 80 81 81 82 83 78 79 78 76 74 76 76 73 74 74 70 70 66 68 69 68 72 72 71 71 73 75 74 76 78 77 78 79 80 82 82
54 66 67 68 73 79 81 82 78 82 81 84 84 81 83 85 86 84 79 77 77 76 77 79 76 76 77 76 76 75 75 77 78 80 81 82 83 86 87 87 87 87 89 90
55 69 72 71 76 81 87 88 83 81 88 89 88 86 82 83 85 87 87 90 88 87 83 82 82 82 82 85 85 83 84 86 83 84 83 83 85 87 89 92 94 97 99 100
54 65 78 79 74 80 86 91 88 87 86 87 91 93 92 90 92 92 91 90 87 86 87 88 87 87 90 90 88 89 91 88 86 87 88 91 92 94 97 100 102 103 105 104
58 65 75 81 82 76 81 92 89 87 88 89 91 89 91 91 87 87 92 93 92 91 92 92 93 94 93 92 93 92 93 92 92 93 97 100 102 105 107 109 107 111 111 111
56 60 67 78 83 82 80 78 86 93 92 90 90 92 93 93 92 91 94 95 98 98 95 94 93 95 97 97 97 97 96 97 100 103 106 108 110 113 112 114 111 112 112 111
50 54 59 69 78 84 84 85 84 83 89 94 95 92 94 93 94 96 94 93 94 96 98 99 99 103 106 104 105 107 107 108 109 111 112 113 108 111 118 120 124 120 116 114
45 51 55 60 67 77 83 83 83 84 85 86 90 97 98 99 102 102 102 103 104 107 108 110 109 111 112 112 113 114 117 117 117 115 120 117 116 120 123 116 115 113 112 110
43 46 52 57 61 63 66 70 76 81 84 87 91 94 96 97 99 102 105 105 107 109 108 109 111 114 114 115 117 120 122 122 124 119 123 122 118 114 112 110 110 109 106 104
40 44 48 52 55 58 61 64 66 69 72 76 80 85 90 95 97 99 101 102 104 105 107 108 106 107 108 108 108 108 109 110 110 110 109 109 108 107 106 105 102 101 99 98
39 43 47 51 55 57 59 62 66 69 70 72 73 75 78 81 85 88 91 93 95 96 97 97 99 100 101 101 101 101 100 101 102 102 101 101 100 99 98 97 95 92 88 87
37 41 45 50 54 57 60 62 65 68 71 73 75 76 77 78 80 81 83 85 86 88 89 90 91 92 93 94 95 95 96 95 95 95 95 94 93 90 87 86 86 86 85 85
33 37 40 44 48 53 57 61 64 67 70 73 75 76 78 80 81 83 84 85 87 87 88 89 90 90 90 90 90 89 90 89 88 87 84 83 83 83 83 84 84 85 85 85
35 39 42 46 49 53 57 60 64 67 70 72 74 76 77 78 80 80 81 83 83 83 84 84 84 85 84 83 81 80 80 80 81 81 81 82 82 83 83 84 83 83 83 83
40 42 46 49 52 55 58 60 63 65 67 69 70 71 72 74 74 75 75 75 75 75 75 75 75 75 76 76 76 77 78 79 79 80 80 80 80 79 78 77 76 74 73 72
43 45 49 52 54 55 57 59 61 61 61 61 62 63 64 65 66 67 67 67 66 67 68 69 69 70 71 71 71 71 71 71 72 71 70 70 69 69 68 68 68 67 67 66
49 52 54 56 57 59 59 60 59 58 57 55 55 54 54 54 55 57 58 60 61 62 62 63 64 64 64 64 64 64 64 64 64 65 65 64 64 64 64 64 65 65 64 64

GFSNGP_250_spd_084.txt.gz
Wind_Speed
67 62 58 54 52 45 36 34 30 38 50 57 59 61 59 56 49 49 54 51 49 44 43 42 40 43 41 42 40 37 33 31 30 28 22 23 25 26 26 22 22 22 25 26
64 60 56 55 48 39 33 37 31 48 62 63 62 62 61 54 47 49 52 52 50 47 41 43 39 42 42 43 40 38 38 38 36 32 30 29 31 32 30 28 27 29 28 27
54 49 47 47 42 37 36 40 40 57 73 64 62 61 64 54 45 42 51 54 52 47 42 39 42 44 45 45 43 43 41 40 39 36 36 36 37 38 37 36 38 36 36 37
49 44 43 42 41 37 43 41 52 64 71 68 64 63 66 57 52 46 46 57 54 50 47 45 46 48 50 49 46 43 42 42 40 38 37 37 38 40 43 43 44 44 44 44
47 46 42 43 41 42 44 41 57 69 71 71 66 64 64 60 56 53 46 52 58 55 52 51 49 48 49 48 48 47 46 45 45 45 44 45 46 46 48 49 50 53 52 51
46 45 44 47 43 43 44 42 64 72 67 64 61 64 62 61 59 57 54 47 50 57 53 53 52 51 51 50 50 49 48 50 51 52 52 53 53 54 54 55 56 57 57 58
44 44 46 46 45 45 44 52 66 74 66 67 58 55 63 64 64 64 55 55 55 50 50 53 53 54 56 58 58 59 58 56 57 56 56 57 58 59 61 61 63 63 64 63
41 41 45 45 48 47 50 62 69 74 70 68 66 61 67 66 68 69 67 61 61 58 58 59 59 61 61 59 59 59 56 56 57 57 57 58 59 62 63 65 66 67 68 68
40 42 48 49 52 54 58 71 71 76 74 74 75 72 66 63 59 62 67 70 63 69 66 67 66 69 68 64 59 59 60 61 62 63 64 66 67 67 67 68 68 69 72 72
38 44 46 51 54 57 63 75 75 77 79 79 79 79 75 69 68 72 69 69 66 69 69 70 74 73 69 70 67 64 66 67 67 67 67 69 70 70 71 73 72 71 71 71
38 42 46 53 56 61 74 79 78 83 86 81 82 85 81 73 70 74 76 81 71 74 75 74 74 75 74 72 72 74 70 72 72 72 74 73 73 74 73 77 78 80 80 80
39 44 49 57 61 64 79 83 83 86 86 83 84 86 87 83 81 77 79 79 78 78 81 80 82 82 81 79 77 79 81 80 82 79 78 78 78 80 81 79 81 83 87 91
39 44 50 59 66 67 80 88 87 89 90 89 86 88 87 87 87 83 86 90 90 85 84 85 84 84 83 82 83 85 84 84 83 84 85 85 86 87 88 88 90 90 93 94
43 45 52 59 64 66 72 89 88 91 92 90 91 88 90 92 92 90 91 92 95 94 96 94 93 93 91 89 88 88 90 89 89 90 91 92 94 95 96 96 99 99 98 99
49 47 52 57 63 69 71 79 92 90 90 94 93 92 92 93 94 95 95 95 97 97 98 96 95 94 94 94 95 96 97 100 101 101 100 102 101 102 102 104 105 104 105 106
45 49 54 59 64 69 74 76 79 92 95 94 93 97 99 98 96 97 98 98 98 99 101 103 101 100 100 101 101 101 103 106 109 110 107 107 107 107 109 112 110 111 111 115
41 44 49 56 59 64 68 74 77 78 84 92 93 91 96 98 96 99 102 102 100 99 102 104 104 105 107 109 111 110 111 108 105 106 110 114 116 115 113 111 117 119 120 117
40 42 43 46 53 58 61 66 74 76 78 83 90 93 94 96 97 101 101 103 107 110 109 110 111 111 111 110 112 113 113 114 113 111 113 115 116 117 120 123 120 115 117 112
35 40 43 45 48 51 55 60 64 69 75 78 80 83 85 90 96 101 101 101 104 106 109 111 113 114 115 116 117 117 116 117 119 120 121 122 122 119 116 115 115 114 114 115
35 40 45 49 51 53 57 59 60 63 64 68 74 79 81 86 89 91 93 96 101 105 109 111 115 117 118 119 120 121 121 121 120 120 118 117 116 115 115 116 117 117 117 116
33 37 40 45 50 54 57 60 64 67 69 71 73 76 78 81 85 88 91 94 96 98 100 102 104 106 108 109 111 112 113 113 112 112 113 114 115 115 114 113 113 113 111 110
28 31 35 39 44 49 53 57 61 65 68 71 73 75 76 79 82 84 87 89 91 93 94 96 98 99 100 101 103 104 105 106 106 107 107 107 107 107 107 106 104 101 100 99
26 28 32 35 39 44 48 52 56 61 65 69 73 76 79 81 82 83 85 86 88 89 91 92 93 94 95 96 97 98 99 99 98 99 98 97 96 96 95 95 94 93 93 92
29 33 38 42 46 49 53 56 59 62 65 68 70 73 75 77 78 79 80 81 82 83 83 84 84 84 85 86 86 86 86 87 87 88 88 87 87 87 88 89 88 88 87 87
36 39 43 46 48 50 54 57 60 62 64 66 68 71 72 73 75 75 76 75 75 75 75 76 76 77 78 78 79 80 80 81 82 82 82 82 83 83 83 83 83 83 82 81
43 46 48 50 53 55 57 59 60 61 61 61 62 62 63 64 66 67 67 68 68 68 69 70 71 72 73 74 74 75 76 76 77 77 77 77 77 77 77 76 75 75 74 73
47 49 51 53 54 55 57 59 60 59 58 57 55 55 55 55 55 56 57 58 60 61 62 64 65 66 66 67 67 68 68 69 69 69 69 69 69 70 70 70 70 70 70 70

GFSNGP_250_spd_087.txt.gz
Wind_Speed
61 60 57 53 50 45 40 38 31 35 28 39 36 38 43 55 62 63 59 55 56 55 54 52 49 46 45 43 42 37 33 32 29 27 25 24 27 28 28 26 27 24 26 28
57 56 56 53 51 45 39 35 35 33 35 35 36 39 45 58 63 61 57 54 56 54 55 54 52 47 45 44 43 41 40 39 36 33 33 33 32 31 34 33 31 31 30 30
51 50 55 55 52 48 45 38 37 33 33 38 38 42 50 60 64 58 56 53 51 57 53 52 53 50 48 46 45 45 43 42 40 40 39 37 36 34 34 34 35 35 35 35
47 51 53 53 53 53 50 44 37 37 39 40 42 45 55 64 62 56 53 55 56 58 53 50 49 47 47 47 48 47 47 46 43 42 44 43 42 41 40 40 40 41 41 41
43 48 51 52 54 49 52 46 43 41 46 43 50 51 62 64 62 57 49 52 53 56 57 51 49 48 46 46 49 48 51 49 47 45 47 49 48 47 46 44 43 44 46 48
45 47 48 51 49 45 45 43 40 46 51 48 53 54 64 65 62 54 53 53 55 58 60 53 52 48 44 48 45 53 52 52 50 50 49 50 51 50 50 50 50 51 52 53
46 44 47 49 47 43 43 42 44 46 49 51 56 61 63 67 63 58 52 49 48 53 59 59 57 55 54 45 58 58 56 56 55 54 54 53 54 55 56 58 59 59 59 60
41 43 46 47 45 43 41 41 44 48 48 54 64 66 63 61 62 63 52 54 51 46 51 60 65 62 61 65 62 60 59 57 58 59 58 59 60 61 62 64 64 66 67 67
41 45 45 45 44 45 44 46 48 49 56 61 69 71 64 61 62 61 64 63 58 56 55 59 64 65 63 64 64 64 65 67 66 66 67 68 70 71 71 68 66 66 68 70
40 41 41 41 44 46 47 50 52 57 64 68 72 61 77 68 66 64 65 64 64 62 64 62 61 60 63 64 72 73 73 77 74 73 74 75 74 74 74 69 69 70 71 72
37 36 38 41 44 47 50 54 57 67 70 71 76 70 64 77 80 72 68 68 68 69 63 65 68 63 73 73 76 80 78 82 78 75 76 76 76 76 75 76 76 77 79 77
33 35 40 41 45 48 54 58 62 74 76 76 80 79 76 72 68 69 73 74 77 78 79 73 74 79 79 81 80 80 81 81 83 84 83 81 84 83 84 84 83 83 84 85
32 35 39 41 45 52 58 64 68 81 82 80 83 84 79 79 77 76 74 76 78 80 83 81 82 81 84 87 88 89 88 86 87 87 88 91 92 89 88 89 93 94 93 92
33 35 39 44 48 53 58 66 73 81 86 86 84 89 87 81 84 85 83 80 80 80 80 83 88 86 88 92 92 94 93 94 95 97 95 93 92 92 94 96 98 96 95 98
35 37 37 40 47 51 56 65 73 78 87 90 87 86 92 90 90 92 92 91 89 90 92 89 92 95 98 98 101 101 100 98 100 100 100 100 101 100 99 102 102 102 103 104
35 36 38 39 42 46 53 61 71 77 82 90 93 91 91 97 96 96 99 100 98 95 94 93 96 99 100 100 103 103 103 105 104 103 106 107 107 108 110 113 109 109 111 114
35 36 37 39 40 43 47 54 61 70 76 82 88 94 93 97 101 101 103 105 107 105 105 106 107 106 106 107 108 109 110 111 114 116 116 118 119 119 120 119 119 118 116 119
33 38 41 42 43 44 48 50 54 60 69 73 84 86 90 94 100 106 108 109 110 111 112 114 114 114 114 116 116 117 118 118 119 120 122 122 122 124 126 123 122 124 123 122
31 32 35 37 39 41 45 49 51 55 61 67 73 79 86 91 91 95 105 112 114 115 115 117 118 119 120 121 122 123 124 125 124 125 127 128 126 125 127 128 126 123 124 127
35 40 41 43 46 48 50 52 53 55 57 59 64 71 77 82 87 92 97 102 105 111 114 116 118 121 123 125 127 129 130 129 127 125 126 126 126 125 125 126 126 126 125 124
30 31 35 39 43 46 49 51 53 55 59 61 64 67 70 73 77 80 85 89 93 97 100 104 109 114 119 121 122 121 122 122 123 124 124 123 120 118 117 117 116 116 115 114
24 27 30 34 37 41 46 51 56 60 64 67 70 72 74 76 77 80 83 86 88 90 92 95 98 101 103 105 107 107 108 109 110 110 110 109 109 108 108 108 108 108 107 107
23 27 31 34 39 43 47 50 54 58 61 64 67 69 71 74 75 76 77 79 81 83 85 87 89 90 92 93 95 95 96 97 98 99 100 101 102 102 102 103 102 102 102 102
24 28 32 35 38 42 46 49 52 55 58 61 65 67 70 72 74 75 76 78 78 79 80 81 83 84 85 87 88 89 90 90 91 92 93 94 95 95 95 95 95 95 94 93
30 34 38 41 44 46 49 51 54 56 59 61 63 65 68 70 72 73 74 75 76 77 77 77 77 78 78 79 79 80 80 81 82 83 83 83 84 84 84 84 83 82 81 80
38 43 46 47 49 52 54 56 56 57 59 61 61 62 62 61 61 61 61 62 64 65 66 67 68 69 69 70 71 72 73 73 73 74 74 75 75 75 75 75 75 75 74 74
42 46 48 48 49 51 52 53 55 56 57 58 58 57 56 55 54 53 53 54 55 55 57 58 59 60 61 62 63 64 65 66 66 66 67 67 68 68 69 70 70 70 70 71

GFSNGP_250_spd_090.txt.gz
Wind_Speed
58 59 62 63 64 63 62 62 59 60 57 49 47 46 42 39 40 38 41 55 55 57 60 59 58 55 53 47 44 41 36 31 26 25 23 21 28 29 39 53 54 53 57 55
58 60 61 59 58 58 56 53 49 47 42 40 37 37 38 40 40 38 50 59 56 58 59 61 62 57 54 50 46 42 38 36 35 33 30 27 28 30 32 33 40 48 53 54
53 55 55 55 55 54 49 44 39 40 39 38 37 37 37 39 38 44 60 61 58 59 59 60 63 58 55 51 47 45 43 40 40 39 39 37 33 33 35 36 40 38 39 41
48 51 54 55 55 51 47 42 42 42 40 40 38 39 37 39 42 51 65 62 58 58 58 57 61 59 56 54 49 47 47 45 44 44 44 41 39 39 42 42 40 42 46 47
47 47 52 57 55 54 52 48 46 43 41 39 39 40 38 38 45 56 68 63 61 58 55 56 58 59 57 56 54 52 50 49 49 48 48 47 46 47 47 47 47 48 47 48
47 45 48 54 55 55 53 52 48 45 42 39 42 41 42 42 46 57 67 64 59 55 56 56 54 54 57 56 55 56 53 56 54 51 53 52 52 51 50 51 52 53 53 53
48 47 46 51 52 53 53 53 51 49 47 42 43 47 47 48 50 58 63 49 52 55 55 56 56 57 56 55 54 51 46 52 55 56 58 57 56 55 54 54 55 56 57 57
50 50 50 47 49 51 50 51 49 49 49 46 48 54 50 52 55 61 64 61 49 53 55 56 56 57 56 54 54 51 47 48 51 50 54 59 60 60 59 59 60 61 62 63
51 48 45 42 43 45 46 43 43 43 43 47 54 50 48 54 59 64 67 59 44 43 51 56 55 57 59 60 58 56 57 57 58 64 56 64 66 65 65 64 65 66 67 68
42 43 41 40 38 41 42 42 42 45 47 53 52 49 50 58 64 68 69 69 58 52 57 53 57 61 60 62 65 67 65 66 67 68 73 79 77 76 71 71 71 72 73 74
39 38 38 38 37 39 41 42 45 50 54 54 51 51 58 62 64 73 72 72 66 62 60 59 60 58 57 55 58 68 73 70 71 80 80 82 83 82 81 80 82 81 82 83
35 33 33 34 36 39 43 46 49 55 57 56 55 60 65 69 68 74 77 72 71 74 72 71 71 68 70 70 74 67 78 81 83 79 87 82 88 91 92 89 90 88 89 91
34 33 34 36 37 42 46 50 53 57 61 64 65 68 68 75 73 74 75 75 76 75 78 75 76 72 72 78 80 76 78 86 89 89 92 88 93 94 99 98 95 97 95 96
34 34 36 37 38 41 46 51 54 58 62 66 67 71 74 74 82 77 80 80 83 85 86 87 85 83 84 86 88 87 84 85 88 90 95 97 101 103 102 102 101 100 100 100
33 33 33 35 38 41 46 51 55 60 63 67 69 73 78 79 81 86 83 82 86 87 90 90 89 89 90 94 92 91 95 93 94 93 94 98 103 104 106 108 109 107 109 110
27 29 32 34 37 39 43 48 54 60 65 68 70 75 79 81 85 86 85 92 94 94 96 97 97 98 98 100 102 103 99 102 104 105 108 111 114 115 114 116 116 115 115 115
27 28 29 32 35 39 43 46 50 54 58 64 71 75 80 82 84 92 95 94 92 96 101 106 106 105 105 105 107 110 111 111 113 113 114 116 116 118 119 118 119 121 120 119
29 31 31 32 34 35 37 40 46 51 54 58 63 69 77 85 89 88 93 99 101 103 103 101 103 105 106 108 109 111 112 115 118 119 120 120 121 122 123 124 125 126 128 129
30 32 35 35 37 38 38 38 40 43 47 51 57 65 72 80 90 95 98 101 104 109 110 113 115 116 116 118 118 117 118 119 120 122 123 125 127 128 130 130 129 129 131 134
33 34 36 39 40 43 45 48 50 52 53 55 57 60 65 75 81 91 99 101 102 106 112 116 119 118 119 122 125 127 126 127 129 130 131 132 134 133 135 137 139 141 143 142
27 29 32 35 39 41 44 48 50 52 55 57 60 62 65 67 70 76 81 87 94 102 105 105 107 109 115 121 128 132 132 133 136 138 139 141 142 142 142 139 138 138 139 138
26 28 32 36 39 43 46 48 50 52 55 58 61 63 66 69 71 73 76 78 81 84 87 91 94 97 102 106 110 114 115 116 118 119 122 124 127 128 129 129 130 129 127 125
25 27 29 33 36 40 43 46 49 52 55 57 60 63 65 67 69 71 74 76 79 82 85 87 89 90 92 94 95 97 99 102 105 107 109 110 111 112 112 113 113 112 111 109
22 25 29 32 35 39 42 46 49 51 54 57 60 63 66 69 71 72 72 73 74 75 77 78 80 82 84 86 88 90 91 93 94 95 96 97 97 98 99 100 100 100 99 99
24 28 31 34 37 41 44 46 47 50 53 56 59 61 64 66 68 70 71 72 72 73 73 74 74 74 75 76 77 78 79 80 82 83 84 85 86 87 87 87 87 87 85 84
30 33 37 39 42 44 45 47 49 51 53 56 58 59 61 61 61 60 60 59 59 59 60 62 63 64 65 66 68 69 70 71 72 73 74 74 74 74 74 74 74 74 73 74
35 38 42 44 46 48 48 49 50 51 52 53 56 57 57 57 56 55 55 55 54 54 54 55 55 56 58 58 60 61 62 64 65 66 67 67 68 68 69 69 70 71 71 71

GFSNGP_250_spd_093.txt.gz
Wind_Speed
53 57 60 62 65 70 72 71 63 62 61 60 57 57 58 56 52 52 49 43 48 47 43 50 58 58 54 53 51 48 42 36 29 28 26 33 37 50 45 44 49 50 47 50
52 50 54 58 62 66 66 63 62 62 62 54 57 55 53 49 48 47 41 45 43 40 45 56 61 57 54 55 54 50 46 41 33 30 29 32 31 36 43 52 56 55 55 53
49 51 57 59 62 63 61 59 62 61 59 56 56 54 50 46 44 42 44 39 40 42 51 60 59 58 56 58 58 54 47 43 38 35 33 34 33 28 34 37 47 60 59 60
50 54 58 60 60 60 59 59 56 55 53 49 44 42 39 39 39 40 38 35 41 46 56 57 57 57 56 59 59 55 52 47 44 41 39 39 38 35 33 35 36 38 43 54
49 48 50 54 57 57 57 54 52 49 44 37 39 36 38 40 36 40 31 37 42 51 57 52 56 56 56 59 60 57 55 51 49 48 46 44 43 42 42 42 42 42 43 44
43 45 47 50 55 57 57 53 47 44 39 38 41 43 43 41 38 39 33 42 48 53 58 60 57 59 56 56 60 61 58 56 53 50 49 49 49 48 47 48 49 49 50 49
40 42 44 45 50 55 55 51 49 44 41 40 43 44 44 42 41 38 37 50 52 54 53 54 38 57 58 39 65 63 62 59 57 54 53 54 54 54 55 55 54 54 54 55
38 40 44 47 47 48 51 52 52 49 46 45 45 43 47 44 42 39 44 55 53 42 45 54 64 59 59 55 58 60 63 62 61 58 56 61 59 55 58 60 57 57 59 60
45 48 50 53 50 48 49 51 53 53 52 52 50 47 47 48 48 45 53 60 65 55 54 53 58 60 58 59 61 58 57 60 62 62 61 61 56 54 51 61 65 66 67 67
44 44 43 42 43 42 44 48 51 53 55 55 54 52 51 51 52 51 58 64 68 73 63 45 53 58 57 51 60 51 53 62 61 61 55 59 63 62 64 67 66 70 72 71
40 32 35 38 41 41 42 45 47 50 53 55 56 56 56 51 54 54 60 67 70 65 63 65 66 63 60 66 69 60 62 57 63 54 62 68 71 72 69 70 72 74 77 78
27 32 32 34 38 39 39 41 43 46 50 53 56 56 55 53 54 55 63 68 70 69 69 63 63 69 70 71 69 65 61 66 64 69 77 76 78 81 77 75 77 78 82 86
30 29 30 31 33 34 35 38 40 44 50 53 55 55 53 53 54 57 66 73 79 80 75 72 75 76 70 68 69 69 71 69 90 90 85 85 85 87 85 79 81 80 82 89
29 29 29 29 30 32 36 38 40 45 50 55 57 57 57 57 58 61 69 76 81 88 86 77 80 82 78 79 78 74 75 82 87 90 88 89 90 92 92 89 84 86 89 88
28 30 30 30 31 33 37 41 42 46 52 57 58 59 60 61 63 65 69 77 83 89 90 88 82 82 85 85 86 86 86 88 94 93 92 90 90 92 94 97 105 97 101 104
29 30 29 29 29 30 35 40 45 48 53 58 59 61 63 65 67 70 76 78 85 90 94 98 97 93 92 93 92 94 94 96 96 95 96 98 100 101 105 105 108 110 115 119
26 27 28 28 29 31 34 38 43 49 53 57 60 62 65 66 70 72 74 78 84 91 97 100 105 105 103 102 101 101 102 102 105 108 108 106 108 108 112 111 114 116 114 115
26 28 29 29 30 32 33 35 39 44 48 52 57 63 67 70 72 74 76 81 85 87 94 100 107 110 111 113 112 112 114 116 116 115 115 115 115 115 116 117 119 122 123 125
27 28 29 29 30 31 33 35 37 40 43 47 52 58 65 70 73 77 79 81 83 88 92 95 99 108 113 116 118 119 120 120 121 122 124 125 126 126 126 127 129 131 133 134
25 28 30 31 32 33 34 37 40 42 45 47 49 53 57 62 66 71 76 80 83 86 89 94 97 102 105 108 116 120 124 125 128 130 131 133 135 137 139 139 139 140 140 141
24 26 28 31 34 36 37 39 41 43 46 49 51 54 57 59 62 65 70 75 79 83 86 90 93 97 100 103 106 111 113 115 117 120 121 123 125 127 130 132 135 137 137 139
27 29 31 32 34 36 38 41 44 46 48 51 54 56 59 62 65 69 71 74 77 80 83 87 89 92 95 98 102 107 111 114 118 121 123 124 125 127 129 130 131 133 134 136
23 26 28 30 32 35 37 41 43 47 50 52 56 58 60 61 64 66 70 73 76 80 83 85 88 90 91 92 94 96 98 101 104 108 111 114 116 119 121 121 121 120 120 121
20 23 26 28 31 35 37 40 45 47 51 55 57 59 61 64 67 68 69 70 72 73 75 77 80 83 84 87 88 90 92 93 95 96 98 99 101 102 104 105 105 105 106 107
20 24 27 29 33 36 39 42 45 49 53 55 56 59 63 64 65 68 70 70 70 70 70 70 70 71 72 73 74 77 79 81 83 85 87 89 90 92 94 95 96 96 97 97
21 25 28 31 36 40 44 45 47 50 52 52 55 59 59 61 63 64 65 65 65 64 62 62 62 62 63 65 66 68 69 71 72 74 75 76 78 79 80 81 82 82 82 82
28 32 37 40 43 45 48 47 48 49 50 52 53 54 56 57 58 58 58 58 57 56 56 56 56 57 58 59 60 61 63 64 65 66 67 69 70 71 72 73 74 74 74 75

GFSNGP_250_spd_099.txt.gz
Wind_Speed
30 30 32 34 38 44 48 53 61 66 61 59 65 69 60 55 55 59 56 60 63 61 61 65 66 68 68 66 61 61 58 45 38 43 43 40 38 38 32 31 41 39 40 38
35 36 38 39 43 49 56 58 59 65 63 59 63 65 62 58 53 51 53 59 58 62 64 66 69 68 62 60 65 59 46 39 41 47 44 37 36 35 31 31 43 49 41 41
37 41 43 46 53 56 58 56 56 57 62 64 62 59 58 60 60 58 58 63 63 64 68 67 62 67 67 58 47 42 40 41 51 50 46 37 33 32 32 32 51 50 48 50
40 43 48 50 56 56 56 53 50 48 52 55 57 58 60 60 59 58 59 56 57 59 62 66 66 53 49 48 43 42 41 49 55 53 49 41 36 32 30 32 48 55 55 46
36 40 41 51 55 54 53 53 51 50 54 57 58 59 55 55 54 53 54 55 59 60 54 48 50 52 52 47 42 45 44 57 60 57 53 47 42 38 36 32 42 43 53 51
25 31 44 48 55 58 53 53 54 55 53 54 56 57 58 54 46 43 45 48 46 41 47 52 55 53 49 41 44 45 45 60 63 57 51 48 47 44 42 41 37 42 44 44
27 23 26 45 52 54 57 58 56 56 56 54 53 55 52 47 49 51 51 51 46 50 55 56 55 52 39 43 45 43 47 62 63 57 55 53 52 50 49 46 45 45 45 46
28 30 32 33 42 49 54 60 59 59 60 58 57 57 56 55 57 56 53 46 49 53 55 53 46 39 42 46 46 39 46 59 62 58 58 57 57 55 53 52 51 49 49 50
33 34 33 34 40 45 50 57 63 61 60 59 59 56 54 53 47 46 48 51 51 49 49 43 36 41 44 44 49 51 49 54 50 49 60 62 60 59 58 57 56 56 56 56
33 37 38 39 40 42 48 53 58 62 60 59 56 55 53 48 48 48 50 49 46 46 45 40 38 42 46 48 51 55 56 57 65 61 56 59 60 61 63 61 62 62 62 63
31 33 37 38 39 43 49 50 50 52 56 58 57 55 54 52 50 47 46 45 47 46 42 41 41 49 54 56 55 54 50 53 57 59 56 55 63 61 63 63 63 64 67 69
26 27 30 34 39 44 44 43 43 45 49 55 60 60 58 56 54 49 49 48 51 50 46 46 49 58 60 61 61 60 63 63 59 65 66 68 67 68 68 74 73 68 68 65
28 32 33 35 35 33 34 35 41 43 46 50 56 61 63 60 59 55 54 54 55 56 53 55 55 63 69 69 69 68 68 73 72 72 70 74 70 74 80 83 74 70 71 68
23 26 28 26 26 30 31 34 36 40 44 46 49 51 55 58 60 60 58 58 59 60 59 59 57 69 76 75 75 77 75 79 77 75 76 82 83 82 83 90 81 75 78 80
14 14 16 19 23 27 28 30 32 36 40 44 44 45 46 49 54 58 60 61 63 64 64 62 63 71 77 84 85 87 83 85 86 87 86 88 91 91 93 93 91 90 90 88
19 19 21 24 23 23 26 28 30 33 35 38 40 42 44 45 48 52 57 61 63 67 69 69 69 69 81 85 94 93 93 95 96 96 99 97 97 98 96 96 94 100 98 97
20 21 22 22 23 24 26 27 29 31 34 35 37 39 42 44 46 49 52 56 60 64 67 69 69 72 76 84 91 93 99 100 104 107 107 106 105 106 106 104 103 102 105 106
21 21 20 19 20 21 22 24 25 26 29 31 33 35 38 40 43 46 50 53 57 60 62 65 67 69 73 80 86 93 98 103 106 109 113 117 116 115 114 113 113 112 114 115
16 15 15 15 17 18 19 21 23 23 24 27 29 32 34 38 41 45 48 52 56 60 63 65 67 69 71 74 78 85 92 100 109 114 114 119 124 125 125 125 123 125 126 124
13 14 14 15 16 19 19 20 23 26 28 31 34 36 39 41 44 47 50 53 57 61 63 66 69 71 73 76 79 81 84 90 96 105 115 117 120 122 124 125 124 125 125 128
12 14 16 15 15 18 21 23 25 27 30 33 36 39 42 44 47 50 53 56 59 63 66 68 70 71 72 74 76 79 82 86 88 90 94 100 107 113 116 118 121 124 128 128
11 10 11 13 16 19 21 23 25 27 30 33 36 39 43 45 50 52 54 59 61 65 67 69 71 73 74 75 77 78 79 81 84 88 92 94 97 99 102 105 108 110 112 114
9 10 12 15 15 16 19 22 26 29 33 37 41 44 47 51 55 57 60 60 60 64 66 66 67 68 71 75 78 78 78 78 78 79 82 85 89 91 94 96 98 101 104 106
9 8 9 12 15 19 22 27 31 33 37 41 45 49 52 53 57 61 63 64 64 64 65 66 67 67 67 67 67 67 69 71 74 76 78 80 81 82 85 88 90 93 95 97
4 8 12 15 19 21 24 29 36 40 42 45 50 52 54 56 56 57 58 60 62 62 63 64 64 64 62 63 63 63 62 62 64 66 68 71 74 76 78 80 82 83 85 88
9 12 14 18 23 28 31 35 40 46 48 50 52 54 56 59 61 63 63 62 61 61 61 61 60 59 59 58 58 58 58 58 58 59 60 61 63 66 68 71 74 76 79 81
11 15 18 23 27 32 37 42 45 48 52 54 55 57 58 59 58 60 59 58 57 58 58 58 58 58 57 55 54 54 54 54 54 55 56 56 57 59 60 61 63 64 66 68

GFSNGP_250_spd_102.txt.gz
Wind_Speed
19 21 26 33 37 44 44 48 54 62 59 60 59 56 53 50 56 56 53 47 41 44 53 49 55 54 52 52 57 56 52 55 62 65 62 66 44 48 42 40 39 37 33 38
24 29 35 36 40 46 49 55 62 64 67 63 60 58 61 61 58 48 53 52 46 51 53 54 51 52 54 57 57 58 58 60 65 64 65 52 47 43 42 42 40 39 36 41
29 33 37 41 46 55 58 58 63 62 60 62 59 56 53 54 58 54 46 44 48 48 49 51 54 58 58 59 59 60 63 64 65 64 60 50 43 43 44 42 45 38 37 44
32 35 38 43 49 56 60 60 59 59 61 62 63 52 49 46 44 48 53 46 48 51 52 54 55 56 58 60 63 63 63 62 65 66 58 44 43 47 45 44 43 41 39 47
36 39 45 48 52 57 61 63 61 60 58 61 60 62 57 54 51 48 51 46 54 56 57 59 61 61 62 64 63 63 64 64 66 52 48 46 46 50 46 44 44 36 37 53
36 42 46 48 51 53 57 62 63 62 58 56 59 61 62 61 60 59 52 48 54 59 56 56 59 62 60 58 62 63 68 56 53 53 49 49 50 54 50 48 42 39 34 48
27 37 44 44 48 50 53 53 55 58 57 59 60 61 63 62 60 58 59 56 55 58 59 62 62 62 62 63 60 56 55 56 54 53 49 51 54 59 53 53 49 45 43 44
26 26 37 44 48 50 49 49 50 52 54 55 56 55 56 61 59 57 57 54 52 52 55 55 53 53 51 51 54 56 56 50 52 52 49 54 55 60 56 57 56 52 49 46
30 29 31 32 41 48 49 51 52 52 53 54 53 52 51 54 54 53 55 54 51 51 47 51 52 53 55 56 59 58 52 50 48 42 47 53 57 60 63 62 61 60 56 54
31 32 32 30 29 29 38 47 51 49 52 53 52 52 52 52 51 53 54 55 52 52 53 56 58 56 55 57 56 50 49 53 56 48 41 44 63 63 64 66 64 64 64 62
33 33 33 32 33 36 37 40 47 55 61 57 54 54 55 56 56 54 53 54 55 57 56 53 53 56 55 53 48 48 50 53 54 56 57 55 64 73 70 69 69 70 70 69
37 36 36 37 39 40 44 48 52 53 49 50 54 58 57 57 57 56 55 54 56 55 52 53 56 55 52 51 49 47 50 52 58 58 64 66 66 71 74 75 76 75 75 75
31 34 34 33 35 39 41 47 46 42 42 45 47 52 55 58 59 58 57 57 54 54 54 53 54 54 54 53 53 50 52 56 66 68 66 70 73 76 78 76 81 81 81 80
33 35 35 38 38 37 38 39 38 38 39 42 44 46 48 51 54 56 57 57 56 55 56 57 56 58 58 59 58 56 60 65 75 78 79 76 79 81 81 81 80 81 82 85
32 33 35 36 31 31 32 34 33 34 37 39 41 43 45 47 49 53 58 59 61 61 61 61 61 64 63 65 65 66 68 77 78 82 82 82 84 85 90 89 91 91 87 90
20 20 23 24 27 27 29 28 29 29 30 33 36 38 41 45 47 48 50 53 55 58 62 64 66 67 70 71 71 73 74 84 88 89 90 91 91 92 94 95 95 100 97 95
26 27 28 25 23 23 23 22 22 24 27 29 31 34 37 40 43 46 48 49 51 53 56 59 64 68 73 75 77 76 81 84 92 94 97 100 100 102 103 104 104 103 105 108
24 24 21 18 17 17 19 21 21 21 23 25 27 29 32 35 39 43 47 50 53 55 58 60 62 64 68 71 76 80 82 83 90 95 100 107 107 106 111 113 114 114 114 114
16 17 16 15 15 17 18 18 18 20 23 25 28 31 34 36 39 41 44 47 49 51 55 57 59 63 66 68 70 73 77 81 85 90 98 103 114 114 113 115 120 119 123 123
16 15 15 14 13 13 13 15 18 21 23 26 28 31 34 37 39 42 45 49 51 53 56 58 60 63 65 67 68 71 74 77 81 84 88 94 100 107 119 118 118 121 124 127
13 13 13 12 12 14 16 17 19 21 24 27 30 32 36 39 41 44 47 50 53 56 58 60 62 65 66 68 69 70 71 74 77 81 84 89 95 98 100 103 112 117 118 119
12 10 11 13 14 14 15 16 19 21 23 26 29 33 37 41 44 47 50 53 56 58 60 62 64 65 67 68 69 71 73 74 75 76 77 81 85 90 94 98 101 103 106 109
14 12 12 12 10 11 12 15 18 21 24 28 32 37 41 45 49 52 55 56 58 61 62 64 65 66 66 67 67 68 69 70 70 71 73 74 76 78 81 85 89 92 96 100
10 9 8 8 9 10 14 18 20 24 29 35 39 43 46 50 53 56 59 61 62 64 65 65 65 64 63 64 65 65 65 64 64 64 64 65 68 71 73 74 76 80 83 88
10 9 7 7 10 13 17 23 27 31 35 39 43 47 51 54 56 58 60 62 63 64 65 64 64 63 62 61 60 59 58 56 56 56 56 58 59 62 64 67 71 74 76 78
8 5 5 8 13 18 22 27 30 34 39 44 50 54 57 59 61 62 64 65 66 66 65 63 62 61 60 59 58 57 56 55 54 53 53 53 54 55 57 59 61 64 67 70
5 5 9 13 19 23 27 32 38 43 46 50 54 56 57 58 60 62 63 64 63 62 61 60 59 59 59 58 57 54 53 52 52 51 50 50 51 52 54 54 55 56 58 60

GFSNGP_250_spd_105.txt.gz
Wind_Speed
25 24 26 28 34 38 43 42 47 48 52 63 62 62 58 53 53 49 43 36 54 52 54 54 57 56 63 62 61 52 51 50 50 50 52 55 58 60 62 62 59 59 54 42
18 20 23 27 28 33 39 46 48 51 52 60 67 65 62 58 55 53 51 42 56 60 61 57 59 56 55 53 54 55 55 59 53 53 53 56 57 60 63 65 65 59 56 47
16 24 30 31 39 39 47 49 49 54 56 60 61 66 64 60 57 56 49 50 43 64 62 63 63 59 56 57 60 52 57 64 58 57 60 63 64 67 69 67 59 56 52 51
20 27 37 43 45 48 49 50 50 55 55 58 56 64 67 64 61 60 54 51 46 44 57 61 59 62 58 53 50 56 58 59 60 61 62 63 62 66 68 66 62 53 49 52
23 31 39 47 49 55 51 51 53 54 56 59 55 55 61 60 65 64 61 56 52 52 49 49 49 51 53 53 53 54 57 58 61 63 64 64 66 67 66 67 61 46 50 52
25 32 42 47 54 56 55 52 52 53 55 56 57 56 55 60 59 56 55 48 46 52 50 50 50 53 54 57 58 59 59 61 64 65 66 66 68 68 67 67 50 48 52 51
25 32 39 45 56 57 58 57 55 54 54 56 58 58 51 52 50 53 55 54 51 50 49 51 55 56 56 57 58 59 62 63 65 67 69 69 67 66 64 53 46 52 54 54
23 23 36 40 49 58 59 59 57 56 55 55 57 57 54 54 51 50 49 51 52 58 55 54 56 55 59 62 62 63 64 67 67 66 67 71 69 64 63 54 51 55 57 55
21 23 27 37 45 53 58 58 55 56 54 56 57 59 61 60 58 59 59 59 58 57 54 54 57 59 60 61 62 63 66 69 71 72 68 68 65 68 67 55 54 56 62 62
22 24 25 29 36 44 48 50 51 53 53 53 52 55 58 60 63 67 67 67 65 62 61 62 62 62 64 63 62 63 68 67 68 68 70 71 69 68 68 60 66 61 67 68
26 27 29 28 29 36 44 44 44 48 49 47 49 52 56 58 58 61 60 60 58 59 62 64 62 62 59 59 60 62 65 64 67 69 69 69 67 67 61 57 63 65 73 74
31 31 32 32 33 34 37 37 37 40 40 45 50 54 56 57 58 57 58 57 57 58 60 60 60 61 63 61 64 64 67 70 72 68 67 63 63 64 65 65 72 69 75 77
36 35 34 35 35 38 40 42 41 46 48 50 48 47 49 50 55 56 56 56 58 59 59 59 58 59 59 62 65 68 65 68 68 66 62 61 60 65 67 67 69 72 79 83
34 34 37 39 37 36 36 37 40 46 45 43 41 41 43 46 46 50 53 56 58 59 60 61 61 62 63 64 66 68 67 69 67 64 66 67 65 66 70 73 81 82 85 88
35 37 37 38 40 41 36 37 37 34 33 32 34 38 39 42 45 47 48 50 54 56 59 62 64 65 66 67 68 71 71 72 70 68 70 73 74 71 76 76 86 90 91 95
33 35 36 36 37 35 30 31 32 32 32 32 30 31 34 37 39 41 45 48 51 54 56 59 62 65 67 68 70 72 74 74 75 76 75 78 81 80 81 84 90 96 97 98
29 30 30 29 29 28 31 32 31 28 26 27 27 27 28 30 33 37 40 44 48 51 54 56 57 58 61 64 67 71 74 77 79 81 82 82 85 89 89 91 96 99 104 107
29 29 28 26 26 24 23 24 24 22 22 23 25 27 29 31 33 35 37 39 43 46 49 53 56 59 62 65 68 70 71 73 76 79 82 84 86 89 94 96 99 104 106 108
26 25 24 21 20 20 20 19 19 21 22 23 25 26 27 29 31 34 37 40 44 48 51 54 58 61 64 67 69 71 73 75 76 77 79 81 85 87 90 93 99 103 103 105
20 19 19 19 19 18 18 19 21 22 22 23 24 25 28 31 34 38 41 44 47 51 54 57 61 63 65 67 68 70 71 72 74 76 78 80 82 84 87 90 94 97 100 102
19 19 18 18 19 19 19 19 18 18 19 22 24 26 29 32 35 38 42 46 50 54 58 60 62 65 67 68 69 70 71 72 73 73 74 77 79 81 83 87 90 93 95 97
20 20 20 19 18 17 16 16 16 17 19 21 24 26 30 33 38 42 46 51 54 58 60 61 63 64 65 65 66 67 67 67 68 70 72 74 75 77 79 80 82 84 88 91
20 20 19 18 15 15 15 14 15 16 20 23 25 30 34 38 42 47 51 55 58 61 63 65 65 66 66 65 64 63 64 65 65 66 67 68 69 70 70 71 72 74 77 81
19 16 15 15 15 14 13 14 16 18 22 26 29 34 39 44 48 53 56 59 61 63 64 64 64 63 62 61 61 60 59 59 59 59 59 59 60 60 61 62 64 67 69 72
16 16 16 14 13 13 13 15 18 21 25 30 35 40 46 50 54 57 60 62 64 66 67 68 66 64 63 61 60 59 58 58 57 57 56 55 55 55 56 56 57 59 62 65
15 15 14 13 12 14 15 17 22 27 32 37 42 47 51 54 57 60 63 66 67 69 69 68 67 66 65 63 61 60 58 55 53 52 52 51 51 51 52 52 53 54 55 57
15 14 12 12 14 15 18 23 28 33 39 44 48 51 55 58 61 64 66 67 68 67 66 66 65 63 62 61 59 58 55 53 51 50 50 50 50 50 52 53 53 53 53 54